GFSSGP_925_rhum_000.txt.gz
RH
9 13 15 15 16 20 19 14 12 22 62 64 57 58 80 93 76 67 84 78 51 61 79 86 86 89 88 84 86 89 85 79 71 67 63 61 68 67 68 65 58 62 67 62 58 56 57 66 59
11 15 10 20 22 24 21 17 48 48 70 66 64 66 83 95 86 91 72 61 49 57 68 76 76 81 82 84 90 89 82 74 66 70 72 72 65 61 61 64 71 71 68 57 53 62 91 94 90
13 11 12 22 26 23 26 18 60 62 62 50 73 72 74 93 87 84 68 62 55 48 52 51 64 66 62 66 73 71 68 64 61 62 65 76 82 83 79 74 66 65 57 53 56 70 84 73 64
14 11 14 19 18 16 20 21 58 58 48 60 70 78 67 67 79 73 70 67 58 53 46 44 40 39 40 40 40 44 50 54 52 53 57 70 79 76 67 61 57 66 72 70 86 95 90 83 80
9 13 16 16 14 16 23 32 36 48 51 53 54 80 73 74 73 70 72 62 53 52 49 45 40 38 37 37 35 37 44 48 50 50 55 61 64 62 64 63 64 74 87 84 80 74 72 83 94
12 13 16 17 12 10 11 19 30 42 44 54 67 72 68 79 73 73 71 61 51 47 49 45 43 42 44 46 45 44 44 49 55 62 65 68 71 71 72 72 75 82 82 77 74 71 70 70 75
11 14 15 12 11 9 8 9 13 19 28 38 60 76 72 78 70 71 72 65 58 56 53 48 48 46 46 43 44 46 49 50 53 61 64 63 61 61 66 68 70 69 70 70 73 75 79 86 90
14 14 12 11 11 8 8 10 11 12 19 42 45 81 75 67 70 74 78 69 63 59 60 60 59 59 54 49 50 50 48 53 57 63 64 63 63 60 60 58 54 55 57 60 63 67 73 80 84
11 18 17 11 10 10 11 10 11 13 29 22 39 58 45 56 74 82 86 74 67 68 64 66 66 68 62 59 58 55 58 58 58 63 62 66 65 62 57 58 56 53 52 53 53 55 57 65 75
15 19 13 12 11 11 13 11 10 15 28 37 42 48 62 65 75 87 89 83 76 72 70 68 70 70 70 67 67 64 65 64 66 66 65 68 70 63 61 60 56 49 49 50 49 49 45 55 57
16 18 14 14 12 12 15 15 14 16 21 39 37 49 72 73 71 81 81 75 70 68 71 64 66 72 76 77 70 70 68 69 70 71 69 71 72 74 68 62 60 61 56 59 51 58 61 54 58
17 16 15 14 15 16 16 15 15 15 13 20 40 56 74 80 74 67 71 71 70 69 63 62 50 47 53 68 77 74 70 72 72 74 74 69 67 68 54 49 56 65 65 65 58 66 72 69 61
17 16 16 15 16 15 15 16 15 17 16 14 36 60 76 79 70 61 56 61 62 65 64 49 42 45 56 64 71 71 73 76 75 76 75 69 66 57 57 58 61 70 76 75 72 60 38 35 31
18 19 19 18 17 17 17 17 16 15 15 15 43 54 73 76 68 59 54 51 58 57 56 43 43 49 58 55 58 63 67 70 72 74 74 68 62 57 65 69 70 73 78 75 56 36 30 26 31
20 20 21 20 21 18 17 17 16 16 14 16 23 49 59 67 57 49 40 45 44 51 46 42 40 39 40 40 42 46 52 54 53 55 54 52 50 45 51 62 66 68 82 73 51 43 30 33 34
22 23 24 18 20 16 15 23 17 14 16 19 19 34 49 50 42 40 32 33 44 48 40 38 35 33 33 34 35 39 46 52 50 49 45 43 42 41 42 43 42 43 64 61 46 43 31 36 34
30 24 22 23 27 30 18 23 18 18 26 24 20 25 32 29 23 21 24 32 43 40 33 33 32 30 28 29 31 40 43 38 39 41 40 41 43 43 44 41 38 38 43 45 40 31 31 36 34
27 23 28 26 26 34 35 32 32 31 28 28 24 26 26 24 22 27 23 23 26 27 29 30 27 27 25 23 24 26 28 26 28 27 28 30 34 39 45 46 43 38 38 41 42 32 33 36 36
23 26 33 30 27 36 38 42 33 28 28 26 23 25 33 33 32 30 27 24 24 26 29 26 23 23 21 22 22 23 23 24 25 25 25 26 26 28 36 45 47 44 40 33 34 34 34 38 39
24 30 30 33 32 37 40 37 25 28 27 32 35 38 33 33 32 32 30 28 27 25 24 22 21 21 21 22 23 26 26 26 26 25 26 27 27 27 29 29 32 43 41 38 39 38 37 38 39
30 27 30 35 38 36 39 31 33 24 27 29 31 29 31 32 31 30 28 25 24 22 21 22 22 23 26 28 28 28 30 31 31 31 32 30 31 34 35 33 30 33 44 38 35 39 40 43 43
37 25 31 39 46 46 39 41 37 37 25 30 28 28 26 28 32 32 30 26 24 24 24 25 29 32 35 36 36 38 40 41 34 35 36 35 34 35 38 42 40 39 51 49 38 36 42 46 49
38 40 42 40 48 46 48 46 37 36 30 27 29 28 29 30 30 27 27 27 29 30 33 38 37 37 37 35 36 36 33 32 33 32 34 29 29 29 30 36 43 43 50 56 53 50 56 56 49
38 45 44 53 54 63 50 48 45 41 35 33 30 29 31 29 33 32 34 38 41 38 36 34 34 35 36 38 38 37 41 41 38 34 34 34 35 34 36 37 43 58 64 62 55 50 45 49 58
49 54 64 63 74 70 51 50 42 34 32 30 30 29 34 41 44 40 48 48 43 40 39 39 41 44 46 47 42 46 45 46 38 35 40 40 39 42 45 49 58 56 60 66 63 70 77 84 88
47 56 76 58 86 80 58 52 43 33 38 32 36 49 55 57 58 60 54 48 45 44 43 46 48 50 46 48 48 52 54 50 41 36 40 43 45 52 56 55 55 60 63 64 68 76 82 87 89
45 66 53 78 96 90 72 55 41 44 47 44 52 52 52 52 54 54 50 50 49 47 46 45 48 50 50 55 53 59 56 48 42 38 41 47 51 56 61 62 60 57 56 58 70 82 81 71 74
47 47 66 85 89 88 74 70 63 55 53 56 53 51 54 52 53 54 51 49 50 49 53 51 51 56 58 56 57 59 53 47 47 47 48 56 59 61 61 64 51 45 45 48 52 50 57 78 79
59 68 66 68 84 93 96 76 55 54 50 57 50 57 59 58 53 56 54 53 54 53 54 56 53 57 60 56 62 56 54 55 49 54 56 59 64 51 46 44 46 46 40 42 49 54 54 49 47
53 56 62 83 71 90 93 79 44 44 51 52 51 56 59 58 58 59 58 60 58 54 57 62 57 62 62 63 55 59 63 53 54 59 62 61 51 46 47 55 52 53 44 42 46 45 40 39 38

GFSSGP_925_rhum_003.txt.gz
RH
9 13 15 15 13 15 17 16 13 47 57 56 53 45 64 77 61 59 86 74 50 65 85 91 84 81 79 82 82 80 76 72 67 66 68 73 74 77 72 66 59 58 64 64 60 71 96 94 92
12 15 11 16 16 18 27 24 25 60 62 58 59 65 67 79 78 72 72 74 49 60 73 76 74 77 78 76 81 79 80 74 69 71 69 66 70 68 64 65 68 67 61 52 70 97 96 95 87
13 10 12 18 20 20 35 33 62 66 58 54 62 61 67 74 75 68 66 47 44 48 60 67 62 61 66 63 69 78 79 76 79 84 86 84 82 79 78 78 68 60 59 62 76 93 85 82 82
14 10 12 21 25 20 33 46 61 58 47 57 58 62 61 70 72 76 58 53 48 43 46 47 51 56 59 66 75 80 80 80 77 80 85 85 91 92 84 73 62 72 73 76 75 74 70 75 81
8 11 17 25 25 25 27 36 55 47 47 52 52 68 66 68 75 66 65 60 46 45 46 45 44 44 45 47 49 49 48 51 53 53 55 65 69 61 58 63 71 90 94 93 76 70 71 66 65
10 12 19 24 20 11 20 29 36 40 49 57 61 64 64 82 75 71 66 52 47 44 46 44 46 45 44 45 46 44 46 51 52 53 58 64 69 70 70 71 77 77 73 67 65 71 78 84 84
11 13 13 13 12 9 10 9 21 34 40 33 48 59 70 80 77 69 65 54 52 51 47 50 48 45 44 44 44 46 48 52 54 54 57 59 61 64 66 67 66 66 62 60 62 66 69 76 84
11 11 12 11 10 9 8 10 12 16 28 41 47 49 69 66 76 74 72 63 59 55 54 53 53 50 49 46 48 48 46 48 52 52 54 56 59 61 63 62 58 52 53 56 57 54 56 68 81
12 12 12 10 9 10 11 10 11 17 34 26 29 49 46 64 82 87 91 81 70 64 62 60 57 60 59 58 55 54 56 58 56 59 58 58 60 63 58 52 54 49 47 46 45 42 44 49 61
12 14 14 11 10 12 13 10 10 14 24 30 37 44 68 78 81 80 82 76 80 74 61 63 62 64 63 62 63 58 60 64 66 67 68 68 70 68 62 58 59 58 55 46 41 40 38 45 54
16 16 15 14 10 12 14 14 12 15 20 22 22 43 67 75 78 76 74 67 68 70 66 63 63 63 62 65 66 65 62 64 66 67 69 68 66 62 64 60 56 60 68 62 60 51 56 62 59
17 16 15 15 16 15 14 14 14 14 11 14 25 45 65 66 73 75 73 72 73 69 69 63 60 63 59 64 70 73 74 69 69 69 69 70 67 62 63 55 58 62 69 73 70 65 58 43 45
18 17 17 16 16 15 16 16 15 15 14 13 26 55 62 61 62 70 69 71 76 70 67 64 61 53 44 54 64 72 73 71 74 74 73 75 71 63 57 52 57 62 69 74 79 63 34 23 23
20 19 19 18 18 18 18 18 17 14 14 14 27 41 56 62 64 63 64 63 64 63 61 63 51 42 44 52 52 54 60 63 66 66 65 72 69 58 50 45 46 51 62 76 79 55 34 26 28
21 17 17 19 20 17 17 17 15 14 14 14 15 32 52 61 67 63 59 58 53 54 58 57 42 33 34 40 41 40 42 47 48 47 49 49 47 44 44 44 44 43 52 67 80 58 41 29 32
19 20 20 18 22 20 16 20 15 15 18 17 20 14 39 54 60 60 55 46 46 52 55 51 35 28 32 35 34 31 37 42 45 43 44 42 40 38 38 38 36 37 44 53 68 61 45 32 37
24 17 22 21 27 28 24 24 19 22 25 24 22 17 24 39 36 28 28 29 38 48 51 39 32 30 30 31 30 29 29 27 30 31 34 30 30 31 36 34 32 35 43 45 47 47 39 41 40
25 21 25 26 23 30 31 29 26 22 26 26 22 21 24 29 26 28 22 22 38 48 41 34 28 26 30 29 26 25 23 23 25 26 27 30 32 32 35 36 34 36 42 43 43 45 44 36 40
23 25 30 27 29 33 37 31 22 23 24 24 24 23 22 24 31 30 25 24 29 31 29 29 24 26 35 32 28 26 25 26 26 27 29 30 30 30 30 33 36 41 53 46 45 43 48 50 39
26 29 26 29 31 34 33 26 27 24 28 32 30 30 29 29 30 35 34 28 27 24 27 32 31 30 29 29 30 31 31 31 31 31 30 28 27 28 35 38 40 42 58 65 62 59 54 54 54
31 27 30 33 33 34 32 27 29 25 24 26 28 29 28 28 28 30 32 37 32 34 33 30 30 33 35 35 34 34 34 37 37 38 35 28 27 27 28 30 35 41 55 62 60 65 61 49 49
37 29 38 38 41 36 36 32 31 32 24 26 26 26 27 27 28 28 30 32 34 31 33 38 38 38 38 37 35 35 43 43 45 46 42 27 18 25 32 33 31 36 57 66 64 63 65 60 51
39 41 43 40 43 41 40 32 34 33 30 28 28 29 28 31 32 35 41 48 51 43 39 38 38 41 43 40 39 41 48 53 53 50 45 37 30 30 36 34 32 33 36 48 69 70 71 66 64
40 41 40 46 45 49 46 40 41 36 34 32 29 31 37 37 36 39 50 48 49 42 40 40 39 40 40 38 42 49 55 61 56 49 44 43 44 36 39 37 39 42 46 52 68 70 76 72 68
43 40 46 54 59 52 47 44 39 36 34 33 35 42 48 50 49 48 46 47 50 46 43 41 41 49 47 49 49 53 57 56 54 46 46 54 56 59 48 48 51 60 59 63 73 82 87 88 90
50 49 61 52 61 59 52 48 44 40 37 38 45 46 44 44 47 48 49 51 53 54 54 52 54 56 53 43 42 48 55 54 46 53 54 61 63 60 54 54 52 53 55 59 67 69 73 76 92
46 59 52 69 89 79 56 48 41 38 39 42 43 43 44 43 43 45 48 53 57 59 60 54 47 38 42 48 52 55 58 48 48 48 44 51 58 66 64 64 62 59 57 51 58 55 48 53 58
43 46 54 67 75 70 52 57 43 44 42 46 43 48 48 44 40 41 42 49 60 51 48 53 53 51 53 57 58 60 53 54 57 47 50 61 69 75 62 50 48 54 64 67 68 67 72 77 80
51 55 61 60 72 80 90 52 46 43 42 43 42 48 49 47 44 43 45 51 59 58 62 60 64 61 66 62 60 54 57 59 48 54 63 68 72 61 65 67 70 77 88 91 70 54 48 56 59
50 52 52 62 61 73 82 59 40 42 38 42 41 46 48 48 47 46 49 55 63 62 62 68 74 76 67 60 58 66 60 50 54 67 73 71 74 60 71 72 85 92 80 73 67 57 39 41 45

GFSSGP_925_rhum_006.txt.gz
RH
16 17 17 12 11 13 20 23 25 38 37 38 35 30 36 45 40 46 52 58 51 63 74 80 80 78 77 77 79 78 74 67 73 78 80 80 82 82 75 68 63 61 62 61 70 91 97 92 96
17 13 11 9 11 14 21 22 26 32 38 35 36 37 34 45 44 49 50 54 53 64 74 78 83 83 85 85 86 85 84 81 78 76 77 80 81 80 74 71 73 69 68 90 96 98 92 84 81
16 12 8 9 10 16 20 20 35 37 37 36 36 36 39 41 39 40 47 51 55 61 68 84 82 83 86 88 90 89 88 84 80 76 81 84 85 81 76 74 67 55 57 66 73 76 74 73 77
11 7 10 11 15 21 20 26 28 35 37 34 26 36 42 48 43 45 52 50 47 51 59 60 61 62 65 73 72 70 76 79 78 78 79 82 84 81 73 61 51 55 61 64 68 64 64 62 63
7 7 13 14 17 22 23 26 30 29 31 33 32 38 42 54 60 54 55 51 45 46 54 57 50 51 50 48 50 56 60 60 59 60 66 64 63 59 57 59 65 66 70 69 66 69 71 71 68
7 10 13 16 21 24 24 28 25 23 28 32 31 31 40 58 54 54 55 48 44 48 58 58 47 45 45 46 45 44 46 50 53 53 54 56 56 56 58 60 61 62 61 59 62 64 70 78 81
8 9 11 13 18 18 17 18 19 19 21 23 26 27 46 53 49 54 48 45 47 47 52 57 59 61 47 49 49 50 56 56 54 56 59 58 60 64 66 67 68 66 64 63 61 60 62 67 74
7 7 10 10 10 10 7 8 12 13 19 28 24 22 36 41 56 56 49 47 47 53 51 58 65 60 64 64 49 50 52 52 55 57 61 62 68 69 70 64 70 57 51 49 49 49 51 55 63
7 7 8 8 7 8 7 7 8 14 20 23 22 21 29 46 60 59 55 50 50 53 61 65 61 63 63 58 61 54 56 58 60 69 65 74 70 75 70 67 57 55 52 50 44 42 40 39 54
7 7 8 7 7 7 7 7 8 12 12 14 19 30 40 53 58 54 50 45 50 53 60 62 68 66 66 58 66 66 67 65 73 76 83 71 79 78 75 71 55 50 50 55 52 51 47 54 50
9 8 8 8 8 7 7 8 7 8 9 9 12 21 40 48 50 46 42 37 44 48 53 60 71 75 68 55 56 53 54 60 64 81 85 78 83 75 73 70 67 69 68 60 61 64 58 67 62
11 11 9 9 9 9 8 9 9 8 7 9 12 17 32 38 36 36 34 34 37 43 49 59 66 75 75 56 52 54 55 55 59 63 83 75 68 68 71 64 59 58 59 68 61 60 71 62 54
10 12 12 11 11 11 12 11 12 11 8 9 14 23 27 28 30 33 32 31 34 42 51 60 68 70 62 68 56 60 61 55 61 62 63 71 65 63 60 57 54 54 56 58 61 59 55 45 41
15 13 14 14 14 14 15 13 13 10 10 10 13 19 24 26 26 30 33 35 39 44 49 62 67 65 55 56 62 56 54 52 53 52 52 65 68 58 54 49 46 45 46 52 56 54 51 42 40
15 15 14 15 15 16 13 13 11 10 10 11 11 13 20 24 24 26 28 34 36 39 46 59 63 52 54 52 50 45 42 47 44 44 50 56 58 51 53 46 46 44 46 56 60 63 56 48 38
12 12 13 16 15 17 14 13 12 14 15 11 14 12 19 24 26 26 29 36 40 41 48 54 55 44 46 46 47 44 42 47 44 44 46 53 57 59 56 48 46 46 50 49 51 52 48 46 39
12 10 12 16 17 18 17 14 14 14 15 15 13 14 13 20 28 35 42 41 37 37 46 50 48 33 37 45 45 47 48 43 34 38 37 41 47 49 53 47 46 50 50 47 48 49 48 46 37
14 13 14 14 15 17 18 17 14 16 16 18 16 15 13 18 28 30 27 26 30 40 47 46 38 40 47 46 45 36 37 36 36 34 36 39 40 46 49 48 51 55 55 51 47 49 48 44 42
16 16 16 15 20 26 24 17 16 16 16 17 17 15 18 22 23 23 26 28 35 48 45 39 41 43 38 32 32 29 31 31 33 36 44 46 46 45 47 45 46 48 48 49 56 55 52 54 47
18 18 18 20 23 27 21 19 17 18 21 20 18 18 19 19 19 24 27 32 34 38 40 37 34 36 35 32 36 40 42 38 41 37 40 38 39 38 38 41 43 42 44 46 49 54 55 54 52
21 21 27 27 24 24 22 22 19 19 19 19 19 19 19 19 20 22 27 32 35 38 37 36 38 41 43 39 36 35 35 34 34 36 35 38 40 40 40 42 45 48 46 42 44 48 50 49 49
25 26 31 30 28 23 25 22 25 19 20 20 21 22 22 21 21 23 25 32 36 43 42 41 42 41 43 44 41 44 39 39 42 42 40 41 36 37 41 43 47 49 48 47 46 42 47 50 48
32 34 33 32 28 29 26 22 27 22 23 23 22 24 25 25 27 30 34 36 40 44 46 46 44 44 45 44 47 42 45 45 43 42 39 32 31 36 41 48 53 54 52 51 59 61 61 62 58
31 33 33 33 33 39 34 29 30 28 28 25 26 29 31 31 28 34 36 37 39 45 48 46 42 44 48 48 47 53 55 52 45 40 37 34 36 36 41 52 57 61 61 60 61 68 73 72 72
26 29 35 47 45 40 34 31 36 30 28 29 31 32 34 36 35 32 33 34 40 44 46 44 44 41 46 50 48 48 47 46 44 42 40 42 40 41 47 62 60 57 62 63 65 68 72 82 86
35 36 47 49 46 38 32 31 33 30 29 30 30 32 32 33 34 33 33 35 40 45 48 48 44 42 42 46 43 41 49 52 48 47 49 48 50 54 65 66 64 64 65 67 70 73 78 77 81
35 43 39 55 78 62 33 34 32 29 29 28 30 32 33 32 31 32 33 36 42 47 48 53 50 42 43 48 52 56 59 55 55 53 53 52 58 60 66 71 64 57 62 64 68 78 85 84 82
33 36 42 40 70 44 24 26 26 36 33 32 30 32 32 31 30 31 32 35 42 46 52 53 53 50 53 56 57 59 58 55 57 56 57 61 65 70 64 59 59 62 68 81 85 87 90 86 78
40 42 42 38 48 49 51 28 31 30 30 31 32 30 32 34 33 33 35 38 41 49 50 52 55 57 57 56 57 55 58 57 57 60 63 67 68 63 60 60 65 72 92 100 99 94 79 57 52
38 40 38 44 47 52 60 45 29 30 30 32 31 31 33 36 34 33 37 42 47 51 52 53 56 56 61 56 55 57 59 58 59 64 69 72 73 73 74 84 96 94 93 83 72 70 58 48 44

GFSSGP_925_rhum_009.txt.gz
RH
8 13 12 11 11 10 17 20 17 22 25 24 21 22 24 28 38 54 36 37 47 53 65 78 82 83 82 84 81 79 76 79 79 81 82 81 82 76 71 66 63 64 64 69 80 92 86 79 86
13 10 10 9 11 12 16 15 19 20 21 19 18 18 21 32 32 34 32 36 47 53 57 80 82 84 86 86 87 85 81 73 71 72 75 79 78 73 69 69 72 67 69 92 98 91 76 71 72
18 11 8 8 9 11 18 14 21 21 20 20 21 18 22 29 25 27 33 38 46 50 60 74 82 86 89 90 89 89 88 80 77 74 78 80 81 80 78 72 56 56 72 92 90 72 66 61 58
11 6 8 9 14 14 14 19 19 21 22 20 16 26 29 25 26 31 34 35 38 41 58 66 74 76 76 80 82 86 87 85 77 71 70 70 68 64 55 51 60 72 78 72 68 65 61 59 59
8 7 9 11 15 15 16 16 17 20 19 19 17 22 34 38 34 31 30 30 32 32 41 67 52 49 49 54 57 60 60 59 59 64 70 71 65 61 60 60 59 56 56 52 54 57 59 63 68
7 8 10 14 16 17 18 17 16 14 16 16 17 22 33 36 32 33 30 28 29 35 39 43 34 36 41 44 46 49 55 61 64 63 65 65 63 62 61 60 55 50 48 46 46 48 51 55 60
8 10 11 13 16 15 15 13 13 12 14 14 14 22 31 29 34 34 29 27 27 34 39 42 47 52 41 44 48 50 55 57 60 61 59 59 58 59 60 55 54 45 40 41 41 41 39 40 47
6 7 10 10 12 12 9 9 10 12 14 12 12 17 29 30 35 32 29 28 30 34 40 44 44 43 47 67 46 49 50 54 57 59 60 61 72 69 68 68 64 50 49 47 43 38 34 31 35
5 7 8 7 7 7 6 6 6 8 12 13 13 19 19 34 38 33 30 29 33 36 42 43 44 44 44 41 49 57 56 57 63 69 70 73 62 60 59 69 61 51 52 52 56 52 47 44 51
6 6 6 5 5 6 5 5 6 9 11 10 14 15 25 33 36 33 28 29 34 39 39 47 50 48 46 38 48 49 47 50 57 60 63 55 64 64 65 64 64 64 65 62 57 56 55 56 46
6 7 6 6 5 4 4 5 5 6 8 8 11 16 24 29 30 31 29 28 31 36 36 42 59 55 48 41 41 39 40 45 48 56 63 59 60 57 56 54 52 53 53 50 53 52 51 59 55
8 6 6 6 6 5 5 5 6 6 6 7 8 14 22 27 28 29 28 25 28 32 32 42 56 53 52 44 40 41 41 44 45 51 57 56 52 52 54 49 48 44 43 49 49 50 52 54 46
7 7 6 6 6 6 8 7 9 7 6 7 9 15 21 24 25 25 25 25 27 28 30 37 50 46 43 47 45 48 48 45 52 47 48 51 53 53 50 48 44 42 40 41 44 45 46 44 41
8 9 10 10 10 10 11 9 10 9 7 7 9 12 16 18 19 22 24 24 26 26 31 37 44 46 40 42 47 47 43 39 39 39 42 49 52 51 48 44 42 39 38 40 44 47 51 47 39
10 11 11 11 11 11 10 11 10 8 8 9 8 10 13 16 17 20 23 25 27 27 29 37 43 42 39 42 42 36 34 39 36 36 41 45 47 48 50 45 44 41 41 43 42 43 44 46 44
11 10 12 12 12 12 12 13 9 9 10 10 10 9 11 14 16 18 21 24 25 26 28 34 40 38 37 36 37 34 35 37 37 35 36 42 46 48 49 44 43 43 47 45 43 42 42 42 40
10 11 9 14 12 12 12 12 10 11 11 11 10 10 10 12 16 19 20 22 25 26 28 33 42 30 32 37 36 38 38 36 30 32 31 38 40 43 47 45 45 48 49 48 47 44 43 42 42
11 9 9 9 12 11 10 11 11 12 12 12 10 10 10 11 16 21 27 25 25 27 30 33 40 28 33 36 39 31 31 32 31 32 35 41 41 47 46 44 44 45 44 42 42 47 48 50 49
10 11 11 11 14 16 16 12 13 14 13 14 13 13 12 12 18 25 24 25 30 38 36 34 34 41 33 30 30 27 28 30 32 34 40 42 41 40 39 37 36 38 36 38 42 44 46 49 48
14 14 14 14 16 18 16 14 14 15 16 14 15 16 18 20 19 22 26 27 30 36 38 36 34 33 30 30 34 39 40 35 36 35 36 36 40 40 38 39 37 36 38 40 42 46 47 47 47
17 18 22 21 17 15 17 17 16 16 16 16 16 16 16 18 20 23 26 32 34 35 34 34 36 38 39 35 34 34 33 32 32 35 37 38 41 36 34 35 40 43 43 40 42 43 44 46 46
21 20 23 22 20 20 16 20 19 16 18 19 20 19 19 19 19 20 25 30 37 39 39 38 38 37 39 44 38 41 39 39 41 40 39 40 36 32 34 35 41 48 47 46 45 40 51 52 50
26 25 24 23 21 20 18 16 24 16 20 20 22 22 22 22 24 26 28 32 36 41 44 40 38 39 42 42 45 45 46 46 44 42 40 38 33 36 35 36 40 49 48 50 54 54 58 57 53
23 25 25 26 23 30 23 21 23 21 23 22 24 25 26 25 26 27 30 31 36 41 42 41 38 37 43 47 47 47 51 53 43 40 40 36 40 37 37 40 50 53 53 55 55 56 61 73 73
21 24 35 41 38 37 25 21 30 24 22 23 26 26 28 29 29 27 28 29 35 37 40 40 36 36 37 41 45 42 41 44 44 43 42 44 40 41 44 53 57 55 53 55 62 74 80 84 88
26 28 44 42 38 30 23 22 27 23 24 24 24 26 26 28 28 28 29 31 32 36 37 43 43 40 36 40 44 46 48 49 48 48 50 49 48 49 52 58 59 58 61 62 64 70 77 79 84
28 33 28 44 56 52 22 21 24 24 25 24 25 25 26 26 25 26 27 28 32 36 37 43 45 43 42 45 48 51 51 51 52 53 52 50 53 53 51 55 54 57 58 70 77 79 78 84 86
29 26 39 34 60 38 19 18 26 31 26 26 23 24 24 24 24 26 28 30 33 34 37 41 45 43 44 47 49 50 51 54 52 51 52 53 54 56 56 57 60 68 87 90 83 84 79 82 81
30 33 34 27 36 44 39 26 24 22 25 26 26 24 25 25 27 27 29 32 36 36 40 42 45 49 48 48 49 51 51 51 50 49 50 62 69 65 70 78 79 81 83 89 96 84 76 78 76
29 30 30 42 37 39 50 42 23 23 23 24 24 24 26 28 28 28 30 34 38 41 42 43 51 52 49 48 46 45 44 46 46 50 64 65 65 72 74 78 79 80 90 93 88 85 71 58 57

GFSSGP_925_rhum_012.txt.gz
RH
3 11 15 12 18 15 14 18 17 21 23 19 19 19 29 36 46 59 35 42 61 71 78 77 74 80 83 80 78 75 74 78 82 82 80 77 74 72 70 68 69 69 69 83 94 67 60 57 60
7 18 10 14 20 18 16 16 20 21 18 14 16 16 27 36 32 31 35 44 53 66 81 84 77 83 83 85 85 84 80 75 74 71 72 72 71 72 76 75 63 59 76 96 80 64 61 58 57
9 15 12 15 14 14 19 18 24 18 15 16 19 24 24 30 27 30 38 44 63 76 75 80 83 87 89 90 89 90 82 75 73 75 79 78 77 77 65 57 61 83 96 96 92 63 59 55 53
17 11 9 13 13 14 15 19 18 18 19 16 19 29 25 24 28 32 36 40 46 71 65 73 74 78 83 83 83 81 82 80 71 68 68 67 66 61 62 71 73 69 59 48 47 47 45 46 48
16 12 14 14 16 15 16 15 15 21 18 17 16 33 36 29 27 28 29 33 39 56 49 48 48 50 51 52 52 55 57 58 58 58 59 59 59 57 57 55 47 40 38 36 36 36 33 31 31
14 10 14 14 17 16 16 14 16 24 17 14 18 30 36 28 26 26 26 27 31 45 37 34 34 33 35 39 44 48 52 55 55 54 55 56 55 56 56 54 48 41 37 35 33 30 27 26 25
15 14 14 15 17 18 18 13 12 12 14 14 14 30 31 27 28 24 24 27 33 36 41 44 34 34 35 38 45 49 50 50 50 51 53 52 59 57 59 57 43 39 37 38 36 33 29 26 23
9 10 12 13 14 14 11 11 10 11 14 10 12 22 31 30 29 26 25 26 31 37 40 44 47 49 57 45 34 39 44 46 52 60 58 64 71 68 67 64 54 48 48 49 48 50 46 41 42
6 10 12 10 10 8 6 6 6 8 12 11 16 16 26 31 29 27 26 27 30 36 40 40 41 42 53 47 48 56 49 62 65 68 59 66 64 69 64 56 59 58 57 51 56 54 53 53 54
6 9 7 5 5 6 5 5 6 9 11 12 18 21 32 32 31 28 27 27 32 38 40 46 45 45 40 38 49 49 48 54 59 60 62 61 59 61 57 61 61 60 53 49 58 54 53 61 58
6 8 6 5 6 4 4 5 5 7 9 10 14 18 29 32 32 29 26 26 32 36 37 53 51 47 46 38 40 41 44 44 49 62 60 58 55 54 54 51 54 47 46 51 48 52 51 53 57
7 6 6 5 5 4 4 4 5 6 7 8 11 15 26 26 27 28 26 26 29 34 35 52 52 49 48 47 44 43 46 44 47 50 56 54 52 53 51 48 46 44 41 41 44 44 46 47 48
7 6 5 5 5 6 7 6 8 6 7 7 10 17 24 26 26 27 26 26 26 32 33 42 49 44 46 40 46 48 45 47 45 45 48 52 53 52 49 46 44 41 40 39 41 43 47 49 47
6 6 6 6 8 8 8 8 9 8 6 7 10 16 20 23 24 25 24 24 26 28 33 41 49 42 40 43 47 47 42 38 38 39 41 48 50 50 48 47 46 44 42 42 42 44 46 50 50
7 9 9 10 10 10 8 11 10 8 7 8 8 11 15 18 18 21 22 23 24 24 28 39 48 43 38 41 44 41 35 38 36 37 40 46 48 49 50 49 46 45 44 45 46 47 45 44 44
9 10 13 10 10 11 11 14 9 8 9 9 9 9 10 15 16 19 22 22 24 26 35 68 48 42 39 39 38 35 39 37 37 36 35 42 44 44 46 47 46 47 47 49 50 50 49 48 46
11 12 12 14 9 11 11 13 9 9 10 10 10 10 10 11 16 18 20 22 24 25 30 34 40 39 36 36 37 37 37 37 34 31 35 40 41 44 47 47 46 45 47 49 47 47 49 52 51
14 10 8 9 11 9 10 11 10 11 11 12 10 10 12 12 14 18 20 22 25 26 27 36 43 36 32 38 38 35 32 32 32 34 37 42 42 43 41 40 39 39 41 41 42 43 44 48 50
10 10 10 12 13 13 12 12 12 12 12 14 13 13 14 22 25 26 26 26 31 34 42 46 44 40 35 34 33 34 37 34 35 36 38 37 38 42 41 40 39 38 41 42 43 44 46 48 48
11 12 12 12 13 13 14 12 13 14 15 14 15 17 22 23 24 27 33 40 40 38 37 35 36 35 34 34 35 36 36 36 35 38 39 39 41 41 37 35 37 42 45 47 48 48 50 48 47
15 15 22 20 16 14 14 16 16 16 16 16 17 18 20 23 27 29 34 37 36 36 35 37 38 41 39 35 37 39 37 37 38 40 42 42 45 46 36 36 38 40 48 51 50 50 50 62 58
20 21 21 19 19 20 14 21 18 18 19 20 20 22 22 21 22 26 33 39 41 40 38 38 37 37 40 39 42 45 42 44 46 49 50 49 41 41 38 38 39 43 52 52 55 57 56 60 63
24 22 21 20 21 19 17 21 22 18 21 23 24 24 25 27 28 30 32 36 41 43 42 39 38 39 42 45 46 48 51 53 50 46 45 42 44 42 40 43 46 53 52 56 58 56 62 68 74
21 23 21 22 24 42 20 21 36 24 24 24 24 26 27 27 28 28 30 34 40 42 42 41 38 36 38 43 46 44 43 45 48 48 48 51 48 47 48 50 54 57 59 61 67 71 74 76 77
19 24 46 59 53 52 24 22 32 24 21 23 26 28 30 31 32 30 29 30 34 37 38 38 41 41 38 38 42 46 50 51 52 52 55 54 53 54 54 54 58 60 61 62 64 73 79 81 84
24 26 60 54 61 44 20 22 31 24 24 23 24 25 27 29 30 29 28 29 30 32 34 38 42 43 41 42 46 51 52 52 54 56 54 54 55 56 54 59 58 62 64 65 68 76 75 76 75
29 34 23 43 56 60 24 28 26 24 25 23 24 24 24 24 24 25 26 28 30 32 34 38 40 44 46 50 48 50 51 54 56 52 52 52 58 63 63 64 67 71 72 76 78 77 79 77 82
25 22 39 49 62 46 24 22 40 30 28 28 23 24 24 24 25 29 28 30 33 37 38 41 44 49 49 50 49 50 52 52 52 50 50 62 65 61 65 70 75 79 83 86 86 89 95 85 76
28 29 30 27 42 52 50 31 20 23 24 25 25 23 28 28 28 30 32 35 38 41 43 44 49 52 50 48 48 46 46 45 47 48 58 62 62 62 62 64 64 66 68 75 69 70 78 77 65
24 27 28 62 44 57 58 42 22 22 23 28 26 25 28 33 34 34 37 41 40 42 45 47 49 48 47 48 46 44 42 43 47 52 55 55 58 60 57 53 52 48 48 45 45 49 48 48 59

GFSSGP_925_rhum_015.txt.gz
RH
4 5 17 18 24 24 21 21 26 29 24 28 32 42 50 47 52 75 73 69 75 76 77 75 79 80 78 77 76 76 76 76 75 74 72 70 70 70 72 71 63 53 50 47 51 53 54 54 54
4 10 18 19 25 26 25 27 29 22 22 28 29 35 43 50 41 54 69 75 75 75 74 77 79 82 84 82 79 75 73 74 73 75 80 82 79 74 63 52 57 64 64 52 46 46 46 46 45
7 13 18 21 22 24 32 27 23 19 20 27 33 32 37 44 40 51 76 80 75 71 70 77 79 84 86 87 85 79 75 77 78 84 72 63 58 52 49 55 55 49 39 34 36 36 34 33 34
18 17 13 16 17 16 29 25 22 22 22 27 30 44 34 33 39 62 70 65 65 77 76 81 80 83 82 81 79 77 73 59 55 56 53 54 53 51 53 52 42 36 33 32 29 28 25 26 25
22 20 18 18 19 26 21 20 24 27 27 38 37 42 40 34 39 49 57 46 53 67 61 60 59 54 53 56 56 51 50 49 49 48 49 48 48 50 53 49 41 34 31 28 26 24 22 21 20
19 15 19 20 25 22 20 21 22 28 22 36 42 40 38 29 31 36 36 28 28 38 41 38 38 38 40 40 42 44 46 45 45 45 44 44 49 50 48 42 32 28 27 31 28 28 26 23 23
19 21 21 17 20 24 17 13 16 25 20 38 36 43 39 30 26 31 37 37 34 30 30 31 34 28 26 35 41 42 43 43 45 44 52 63 63 64 55 54 51 51 50 48 48 49 50 45 40
16 16 15 14 19 17 12 11 13 15 14 18 32 45 48 31 25 29 32 37 38 43 43 46 49 50 37 22 27 34 40 49 56 58 62 68 67 64 59 56 59 57 53 53 53 53 53 54 56
10 12 14 12 14 13 8 9 7 13 16 28 27 35 36 27 25 26 33 36 41 44 44 47 52 54 43 46 44 50 58 59 63 62 66 66 65 62 60 60 62 57 49 53 53 52 53 56 57
10 15 10 7 9 9 7 7 7 14 15 32 41 34 31 28 26 27 30 33 42 42 44 44 45 49 49 47 48 49 56 58 60 62 62 64 63 63 65 63 61 46 50 51 45 50 50 56 54
9 11 7 7 6 7 7 7 8 15 16 25 47 41 37 33 31 30 28 32 40 40 46 45 46 43 45 46 49 49 56 60 67 62 59 56 58 57 52 50 46 45 42 42 43 47 47 46 51
9 8 7 6 6 7 6 6 5 8 11 17 32 38 38 41 38 31 29 32 37 41 49 49 40 42 45 44 48 51 48 53 52 58 56 54 53 53 49 46 44 44 41 42 42 42 41 44 47
8 8 7 6 7 9 8 8 8 9 11 15 26 33 37 38 35 30 28 27 35 43 52 51 38 23 39 47 46 45 49 43 50 47 46 41 54 49 48 47 45 44 43 42 43 42 42 46 46
8 8 7 6 9 8 9 9 10 9 9 17 24 33 33 33 31 29 30 29 31 39 53 52 46 44 37 46 47 43 41 40 43 41 38 39 46 49 49 46 47 45 46 48 48 45 47 49 47
10 11 10 10 11 11 10 12 12 10 9 11 16 28 32 32 30 30 28 28 31 35 60 61 64 53 45 47 41 47 36 37 39 37 38 41 45 48 50 50 50 48 48 47 45 47 51 50 48
10 12 17 13 14 12 12 18 13 11 11 12 14 14 20 29 28 27 24 25 30 37 54 56 57 54 49 47 38 38 38 37 38 43 43 47 44 45 45 42 44 43 43 45 47 46 49 52 51
14 19 19 16 14 16 15 18 14 12 12 13 14 13 14 20 25 24 23 25 29 30 51 58 55 51 48 53 38 38 37 34 36 38 40 41 43 44 42 37 36 37 38 38 42 44 43 42 39
19 18 20 20 13 11 11 13 16 13 13 13 13 16 16 31 37 40 38 38 39 52 57 59 58 52 46 39 40 38 40 38 38 38 39 39 41 40 39 38 39 38 36 38 40 40 40 46 51
14 15 22 18 14 14 14 16 19 20 19 23 29 34 36 40 46 47 44 45 46 48 53 47 42 35 40 39 37 35 36 36 42 38 40 39 39 39 40 44 37 39 43 42 42 44 44 47 48
14 20 26 19 15 14 15 17 22 22 25 26 32 36 39 42 44 45 44 39 42 40 40 39 37 36 36 37 39 38 37 39 37 39 44 50 48 46 42 38 39 42 44 50 50 46 55 60 58
24 29 27 24 20 17 18 23 25 24 24 24 28 32 35 41 45 47 48 41 39 39 39 38 37 35 38 38 37 35 38 40 46 48 48 44 44 43 40 40 41 42 46 51 50 49 61 62 65
33 28 26 24 26 31 20 38 28 27 30 30 33 38 39 40 44 46 48 44 41 40 39 38 39 39 38 37 40 45 51 53 49 46 48 46 46 44 42 43 44 45 47 49 63 69 67 65 74
30 23 26 25 31 30 28 38 30 29 36 35 37 37 40 43 44 49 47 44 44 42 40 39 40 38 38 43 47 50 45 44 52 50 48 49 48 45 45 44 49 56 60 66 66 68 69 72 75
22 29 32 31 37 60 37 37 50 42 35 36 37 38 40 41 42 40 40 42 42 42 41 41 40 42 42 44 46 47 51 53 52 52 53 53 50 52 51 58 60 60 65 64 64 71 77 79 79
27 42 70 71 77 73 47 40 50 38 30 34 41 44 43 42 42 42 43 44 43 42 40 41 43 43 43 47 51 52 53 53 56 55 54 51 52 54 63 61 62 67 67 67 68 74 76 78 77
34 38 75 64 82 68 27 45 46 34 32 33 36 39 40 39 38 37 32 32 37 38 39 40 41 48 48 49 52 53 53 54 55 55 51 51 64 65 57 55 70 76 78 79 81 82 80 79 79
34 42 25 60 61 79 46 41 34 31 31 31 30 32 36 38 38 36 38 38 42 44 44 44 47 50 51 51 49 50 51 53 53 49 55 65 62 54 52 61 68 66 60 67 69 74 75 66 79
29 24 55 66 63 54 42 51 61 42 48 38 30 35 36 40 44 47 47 42 41 44 48 47 49 51 50 51 48 46 46 45 48 56 60 58 55 50 46 57 57 61 61 66 63 62 62 62 62
38 40 39 40 64 74 78 50 33 44 45 42 39 40 47 48 46 50 48 43 43 43 46 50 50 49 48 48 48 47 44 48 47 48 53 54 52 48 58 57 46 39 40 39 39 40 42 57 59
25 34 41 75 57 79 82 60 30 44 39 40 38 44 44 44 48 50 46 45 45 45 44 42 43 44 47 45 45 44 44 44 45 48 46 49 52 53 50 41 37 38 39 40 40 44 51 54 54

GFSSGP_925_rhum_021.txt.gz
RH
7 5 14 17 22 26 26 21 34 41 54 52 51 53 71 85 73 82 83 93 85 88 83 75 71 70 72 74 80 83 74 71 66 60 54 54 48 43 45 42 35 26 34 40 31 26 25 26 30
6 18 17 23 25 28 35 33 47 44 46 40 43 56 65 91 88 96 96 98 90 87 81 75 72 73 75 76 75 72 67 65 60 52 52 46 43 41 32 20 18 20 20 21 22 22 23 24 25
12 16 17 23 30 29 34 33 44 44 39 37 43 40 57 92 86 89 92 93 95 91 82 77 75 75 74 74 70 68 71 67 54 49 45 42 40 34 25 18 18 18 21 22 23 23 23 23 24
22 16 16 18 22 20 27 34 38 42 38 40 44 55 45 66 81 85 96 96 91 90 88 83 81 78 77 73 74 71 58 50 46 43 41 38 36 34 27 21 20 22 26 29 37 39 33 28 41
22 18 20 20 22 24 28 34 36 41 42 41 40 51 66 93 85 88 96 96 91 96 90 89 84 80 75 71 64 51 46 42 43 40 35 33 36 32 33 32 37 45 46 49 50 51 51 47 50
19 17 20 44 41 32 31 31 42 43 42 48 55 52 62 99 94 100 93 98 93 86 93 84 70 64 61 51 44 42 41 42 39 36 40 50 42 50 53 53 50 51 52 50 53 53 55 53 52
18 20 20 25 48 29 31 22 43 42 44 43 41 56 75 84 96 92 86 83 86 79 66 58 52 45 40 41 42 41 40 40 39 50 56 57 55 58 59 57 52 52 52 49 50 50 50 51 50
20 18 20 18 47 43 21 18 35 42 45 35 36 61 84 60 93 89 84 72 62 55 41 32 29 33 37 38 37 38 36 40 57 60 61 60 61 62 62 61 57 55 52 48 49 50 50 49 47
14 20 20 34 40 48 32 20 21 33 41 40 37 43 57 72 81 80 75 70 58 45 34 36 26 26 27 31 35 43 54 60 65 66 64 63 64 65 66 63 57 53 48 49 48 50 48 45 45
18 21 17 14 27 40 19 31 35 43 48 49 45 43 54 67 67 63 63 66 55 48 44 42 35 34 35 45 51 60 63 63 67 68 65 65 67 69 62 60 58 56 48 46 47 50 46 44 46
15 14 9 8 12 11 13 20 24 50 51 42 43 48 50 59 54 49 51 44 43 46 51 49 41 44 42 52 55 58 60 61 63 64 64 62 65 61 57 53 50 50 48 48 49 50 52 51 53
12 9 8 8 10 9 11 11 30 23 44 40 36 41 45 48 50 50 52 52 50 51 52 50 46 47 50 49 53 56 61 63 65 60 58 56 57 55 51 49 51 52 53 54 52 49 46 44 48
9 8 8 10 9 8 8 8 11 14 43 37 35 37 40 41 43 45 44 47 50 55 53 51 52 48 52 54 52 53 58 64 63 59 54 51 54 51 51 49 50 50 46 40 38 36 36 37 41
10 8 8 10 10 9 10 11 11 21 48 41 37 36 35 36 37 40 44 50 53 53 52 50 50 52 50 48 52 52 55 60 57 57 49 45 51 49 51 49 47 36 37 38 37 37 38 39 39
10 10 10 10 10 11 12 13 14 23 47 44 39 38 39 36 34 35 38 46 50 55 50 54 59 55 51 50 51 52 49 51 56 52 46 47 53 54 50 40 36 39 40 39 38 37 36 36 35
14 16 16 13 12 14 10 14 13 33 51 51 46 45 46 48 47 40 38 36 48 58 57 63 59 53 53 53 53 48 48 54 54 50 53 55 52 44 40 40 41 41 40 40 40 41 38 38 37
21 18 17 16 15 13 13 16 15 23 50 54 47 61 61 68 68 64 47 40 48 67 69 68 63 63 61 61 47 51 47 44 55 55 49 45 43 41 41 42 41 40 40 42 45 42 45 42 37
17 17 20 19 16 17 17 19 29 19 35 37 74 71 70 73 75 86 87 80 80 79 75 74 70 70 74 65 51 48 47 48 47 45 43 42 43 43 44 43 41 40 39 38 37 37 37 40 55
16 22 22 20 16 21 30 42 46 55 65 74 71 68 68 69 67 74 86 88 82 78 76 70 68 80 47 47 44 45 49 47 46 46 45 45 45 44 42 40 40 39 36 35 39 51 57 62 68
24 24 23 21 22 28 38 45 49 54 64 68 66 65 66 68 66 70 74 71 73 70 64 51 54 57 45 42 46 48 49 52 49 49 48 46 44 43 42 42 42 40 37 40 53 63 66 70 70
35 29 27 24 24 29 34 44 45 42 51 56 62 63 60 64 69 73 70 62 53 43 40 39 38 38 39 41 39 42 47 54 52 50 48 48 49 49 48 46 43 44 49 58 62 65 67 72 66
33 29 26 25 26 42 28 59 37 46 55 58 64 70 67 69 70 63 57 48 41 39 37 36 37 38 38 38 38 38 39 45 57 54 52 53 52 50 48 46 44 49 52 50 63 74 76 78 85
32 28 27 27 35 37 33 52 45 50 59 60 63 66 67 65 59 62 54 44 40 41 42 42 43 42 42 43 44 46 52 55 58 56 54 53 52 60 63 52 50 52 53 63 68 71 78 82 85
24 35 45 51 49 60 41 48 56 57 55 56 54 58 58 62 62 58 51 49 52 51 49 49 48 47 49 52 52 51 52 56 55 54 53 53 58 58 52 52 54 50 56 62 58 68 72 76 80
35 47 68 69 74 69 48 55 54 44 45 50 56 57 58 60 66 68 60 57 53 51 53 50 48 52 54 53 53 53 53 53 51 51 48 50 48 47 52 56 47 46 53 60 62 64 58 61 59
36 44 74 57 72 63 48 62 54 46 49 48 49 55 55 58 58 63 60 58 54 54 52 51 51 51 51 51 50 50 49 47 46 45 47 48 49 54 58 46 43 60 67 63 64 69 54 52 55
34 45 40 70 71 76 64 47 45 49 52 50 52 52 59 63 65 65 62 57 54 52 52 51 51 52 52 51 51 50 50 48 48 49 50 51 58 61 53 46 55 54 58 45 43 40 40 43 44
30 34 53 68 57 56 55 58 65 52 53 50 55 64 65 64 64 65 61 58 54 48 43 41 43 44 45 48 47 46 50 53 55 54 53 56 63 59 56 61 80 56 48 40 39 40 40 41 47
39 42 51 56 70 71 76 66 43 52 52 56 65 64 67 69 67 62 56 54 47 41 39 40 40 39 44 47 51 53 49 45 48 50 58 65 60 58 63 68 62 51 40 40 40 40 40 45 52
31 39 46 68 51 83 80 60 40 54 54 56 58 61 68 68 63 59 54 49 46 42 40 40 30 29 34 44 47 34 32 38 58 56 60 60 66 66 66 64 62 47 42 42 40 42 49 49 53

GFSSGP_925_rhum_024.txt.gz
RH
7 8 17 19 20 24 23 21 36 44 58 56 60 63 81 93 71 77 97 87 80 89 92 85 76 74 75 74 75 74 73 66 59 54 51 43 42 38 28 22 27 60 68 64 36 29 25 24 28
7 18 18 24 25 24 37 25 51 58 59 59 61 67 70 94 84 96 97 98 85 92 91 85 81 78 75 76 80 82 66 58 52 47 41 41 36 24 19 21 22 25 34 42 35 25 24 26 28
12 18 19 26 31 26 30 43 50 48 44 41 44 46 70 93 88 92 98 92 85 89 88 90 80 78 75 74 70 63 58 48 44 41 39 36 31 24 20 20 22 26 32 38 41 35 30 47 50
19 18 19 21 21 22 26 47 45 44 42 52 52 57 63 82 85 91 100 94 89 91 88 85 80 75 70 63 62 61 50 45 42 39 36 34 30 22 21 25 36 42 48 50 50 48 50 52 49
20 20 22 23 27 27 24 40 40 44 44 48 45 59 76 96 88 100 98 92 92 90 88 84 79 69 66 66 64 53 48 42 40 36 32 33 33 40 45 46 48 50 51 52 54 55 53 50 44
21 18 23 54 44 33 38 44 43 46 44 44 59 63 82 98 100 100 100 100 99 93 93 86 77 73 68 62 53 47 42 40 38 35 44 40 51 54 52 50 51 50 49 48 48 49 49 47 47
19 20 20 44 44 34 31 38 48 54 48 51 47 83 94 95 100 100 99 98 100 86 88 83 78 72 62 51 47 42 42 41 43 52 54 53 58 59 57 53 53 51 47 49 46 46 47 45 46
22 20 20 28 47 50 34 30 44 44 46 37 54 94 93 85 100 99 99 99 88 86 81 75 65 52 47 44 41 42 43 42 55 59 59 60 61 62 62 57 55 54 53 51 51 49 47 45 45
16 22 22 41 47 45 32 23 28 37 41 43 43 68 73 94 100 100 100 100 96 81 62 51 43 44 39 40 42 44 44 57 61 63 63 63 64 65 65 64 58 54 51 50 52 53 48 46 47
21 24 19 28 38 40 30 28 40 43 47 46 58 71 87 97 100 100 100 98 79 56 46 40 36 34 34 40 41 48 56 64 66 65 63 66 69 67 65 63 59 52 48 48 51 50 50 48 45
18 20 14 15 31 31 31 33 33 49 49 46 63 77 84 92 86 85 79 59 41 40 44 36 33 30 36 42 53 57 59 65 65 66 68 66 66 68 64 54 51 51 52 51 52 48 42 39 41
14 14 9 8 20 22 20 20 47 36 38 40 55 66 74 77 66 63 60 52 49 48 44 42 41 38 46 51 55 60 64 65 65 66 66 61 61 59 53 50 52 51 49 44 38 37 37 36 37
14 9 10 10 10 13 12 16 39 27 45 41 51 55 61 61 53 47 40 40 46 50 50 48 46 47 46 54 58 62 64 63 67 66 64 65 59 55 53 52 49 41 39 38 38 38 38 36 35
13 8 9 12 10 9 9 12 12 24 46 45 49 52 55 54 50 49 50 50 51 52 55 56 57 52 56 58 57 59 62 65 70 69 64 62 59 54 54 47 39 39 40 40 40 39 39 37 35
10 9 11 12 11 13 13 13 13 41 44 45 46 48 47 43 44 47 47 50 51 56 58 60 61 72 67 64 67 72 66 67 74 71 59 61 60 56 44 39 42 42 41 41 41 40 38 37 35
14 16 14 12 12 14 10 14 14 54 48 51 48 48 54 63 57 44 38 44 52 60 63 65 66 68 67 65 67 75 61 68 70 60 60 57 49 43 42 42 41 42 41 40 38 38 36 34 31
21 20 17 16 15 14 12 16 29 37 56 59 61 60 67 71 76 72 48 41 49 64 65 70 72 74 75 63 81 60 53 59 60 53 48 45 43 42 42 43 42 40 38 38 37 35 35 37 43
17 19 20 17 16 22 24 48 55 55 51 70 79 79 81 82 84 98 97 81 83 82 73 76 80 79 90 81 58 56 53 49 48 46 47 42 49 45 44 42 42 41 40 41 43 43 44 55 69
18 20 20 21 18 44 57 65 69 76 78 81 84 84 84 85 81 94 99 96 93 86 79 75 68 88 61 54 50 46 45 46 51 48 45 46 45 45 43 43 44 42 40 36 40 44 52 56 62
25 26 24 24 28 44 54 58 61 67 76 76 80 84 84 84 84 83 87 84 83 83 80 78 79 64 51 49 50 51 52 52 48 48 48 47 46 45 46 47 48 49 44 32 35 46 64 67 71
34 28 27 27 31 37 43 52 58 55 68 68 70 69 72 81 87 86 87 83 68 51 48 52 60 51 47 48 44 44 49 51 51 50 49 48 48 49 51 57 55 45 40 42 47 62 74 80 76
31 30 27 28 34 42 34 58 50 58 68 69 70 72 71 76 76 67 63 53 46 46 45 44 44 44 42 43 44 46 49 56 64 57 52 52 52 52 60 56 46 41 46 45 58 68 72 78 87
33 32 32 33 40 37 39 60 52 63 69 70 73 72 71 71 65 62 54 50 47 46 44 43 44 44 44 45 47 51 54 57 57 54 52 53 52 56 48 49 48 54 52 59 59 66 74 77 82
29 40 48 54 52 58 45 47 55 69 64 67 66 69 70 65 61 60 56 54 52 50 46 45 45 47 50 51 52 51 51 53 54 54 54 50 49 52 54 52 54 52 47 52 52 54 56 56 62
42 48 70 68 74 71 50 53 48 49 55 60 65 67 67 69 71 70 62 59 57 56 56 54 53 54 53 52 52 51 50 49 46 44 45 45 46 46 50 56 55 48 53 59 59 64 69 57 56
38 46 73 58 78 67 50 61 54 49 48 53 58 64 64 67 72 70 63 62 62 58 54 51 50 51 52 50 49 42 41 42 45 46 48 49 52 55 60 58 47 53 53 66 59 49 52 40 41
38 48 44 71 71 78 68 50 51 58 60 61 61 60 63 68 68 69 65 63 59 54 52 50 50 49 48 48 48 51 55 56 57 55 56 58 60 63 63 56 50 52 63 60 54 47 40 40 40
31 40 51 69 54 51 61 60 69 63 64 62 62 66 72 72 72 73 69 62 56 50 43 41 44 45 47 54 58 56 56 48 36 38 49 54 62 64 63 58 57 69 65 59 46 41 40 41 44
41 45 55 59 70 70 77 69 54 58 56 59 66 72 71 71 72 71 67 57 46 41 40 40 37 33 39 42 47 47 32 25 22 32 56 58 58 56 56 64 72 65 65 70 49 43 43 47 54
34 40 45 63 48 84 79 61 44 54 56 59 70 68 73 71 68 62 55 50 47 45 41 38 32 34 39 46 32 27 25 29 39 49 51 49 46 48 69 74 69 73 78 62 59 51 50 56 59

GFSSGP_925_rhum_027.txt.gz
RH
10 8 11 21 16 17 18 17 34 50 60 59 57 53 66 75 74 76 96 87 77 88 97 86 78 74 74 75 77 71 59 49 44 41 37 35 30 22 23 30 54 70 71 63 51 30 26 27 26
10 15 20 20 18 17 22 28 50 59 64 48 48 55 61 76 81 95 91 99 83 94 96 93 76 76 77 79 72 57 49 43 41 36 34 30 21 22 24 30 38 54 61 57 36 33 44 48 46
17 16 16 19 22 17 31 48 51 50 47 43 52 55 81 83 86 93 96 98 97 90 95 81 76 79 82 80 60 50 46 44 39 37 35 26 23 23 24 31 43 52 62 65 48 51 47 41 43
22 17 15 16 18 18 28 45 53 70 58 46 40 60 76 89 87 90 99 99 96 93 95 81 82 83 83 77 58 52 46 41 40 38 36 32 25 25 38 46 49 51 52 53 52 51 46 42 37
18 16 17 26 33 27 19 42 40 45 60 52 42 53 83 94 95 100 99 98 95 98 97 88 80 82 85 67 58 51 44 42 39 37 37 31 37 46 49 49 48 49 50 50 50 48 49 49 46
18 16 22 40 39 36 42 42 43 50 48 42 52 65 86 100 99 100 99 96 96 91 94 92 86 80 68 64 54 47 42 39 37 40 40 49 50 50 52 53 51 51 49 50 50 49 47 47 48
18 17 31 39 38 35 38 43 45 44 45 48 52 78 94 97 100 99 98 98 99 95 96 95 93 76 68 57 52 45 42 40 46 46 51 56 56 52 53 54 54 52 49 47 45 42 41 42 44
17 17 22 41 47 42 32 41 37 36 44 43 55 76 91 90 100 100 100 99 100 100 99 94 87 79 71 60 50 44 43 47 55 56 56 59 61 60 57 55 52 50 48 48 49 45 44 40 42
16 18 18 41 54 38 32 32 36 36 41 42 43 68 72 99 100 100 100 100 99 100 97 86 76 71 59 52 50 48 46 57 62 61 62 63 64 65 61 56 53 49 48 49 50 48 48 44 38
18 19 17 27 34 45 49 30 39 42 44 43 72 89 98 100 100 99 100 99 99 99 84 70 69 58 51 49 49 51 54 61 65 65 66 68 68 68 68 60 55 49 49 50 50 49 39 36 36
20 18 16 25 29 22 29 33 39 45 47 39 64 92 95 97 96 95 96 98 91 75 66 56 48 47 46 48 52 56 63 68 69 69 69 70 72 73 65 54 52 53 53 49 42 36 37 37 37
16 15 12 19 27 29 28 30 45 37 34 36 59 76 87 89 92 94 89 80 72 70 57 45 45 44 48 52 55 61 64 68 70 71 73 72 72 65 53 54 53 48 41 38 38 38 38 38 37
17 13 11 10 24 26 20 30 39 35 39 44 66 76 76 76 76 74 65 62 61 61 52 47 47 49 54 60 63 68 72 74 77 79 75 70 63 58 56 52 44 40 38 38 39 40 40 36 34
16 10 11 11 14 15 18 16 27 27 42 54 64 66 65 65 61 54 50 50 56 58 61 57 56 57 58 62 66 70 75 83 87 88 75 68 62 59 52 43 41 39 40 40 41 38 37 37 35
11 11 12 14 11 13 12 14 16 37 41 54 59 56 55 52 50 45 45 51 56 59 61 66 68 67 62 65 68 72 77 80 88 84 68 63 61 53 43 41 41 41 42 41 39 38 38 45 41
14 16 13 13 14 14 11 15 28 46 42 49 51 48 48 46 46 53 49 52 61 67 74 82 79 72 70 71 60 63 73 75 86 75 63 59 53 45 43 42 43 43 40 38 38 39 47 53 56
20 16 18 15 18 14 14 21 40 41 45 49 48 50 52 59 70 92 70 56 62 66 77 85 79 73 72 60 63 88 71 70 63 56 51 47 45 44 43 44 42 41 41 41 42 54 50 56 55
19 19 19 18 20 26 34 49 54 50 49 59 60 63 64 66 78 97 99 93 90 94 90 83 84 76 80 75 81 66 62 56 50 50 55 51 50 46 44 43 43 44 47 49 55 58 54 61 66
18 19 19 22 26 45 59 59 61 63 60 65 66 65 68 73 88 98 100 99 100 99 87 77 81 72 78 85 62 57 50 50 54 55 47 48 46 46 45 49 53 50 46 38 47 57 59 48 68
24 25 27 31 33 43 51 58 62 62 67 65 65 68 71 83 84 96 98 98 93 96 97 85 79 73 71 62 54 49 51 59 52 48 48 48 48 48 53 47 47 43 47 42 36 55 59 62 77
32 29 29 30 36 38 40 45 59 62 66 69 70 70 78 85 87 86 91 91 93 91 86 86 78 54 55 52 53 56 56 55 54 52 51 50 50 51 56 42 44 41 44 57 62 72 77 61 69
37 30 29 30 29 31 34 27 49 66 72 72 73 75 78 80 78 79 81 70 63 57 61 71 78 55 56 58 54 55 59 63 67 59 52 52 51 50 53 45 44 48 51 47 58 66 70 70 58
37 33 32 31 33 33 34 32 47 65 74 71 68 67 69 71 61 60 52 54 56 51 51 52 52 52 50 51 52 53 55 55 54 53 52 52 45 45 46 49 50 53 52 38 39 63 68 68 66
39 38 42 45 42 38 41 36 38 64 60 63 60 61 63 60 55 53 56 57 54 48 47 48 52 53 53 53 52 52 53 52 46 43 45 46 46 47 47 51 55 58 48 45 56 60 73 74 73
36 39 49 52 56 50 48 49 35 40 49 53 58 56 58 56 54 53 53 54 60 61 55 55 54 53 53 51 49 40 39 42 44 51 58 58 61 58 57 59 60 59 51 50 71 78 76 77 63
40 40 58 52 62 54 46 52 39 46 40 47 48 52 56 56 56 56 57 59 63 64 59 53 54 54 51 48 43 41 43 47 52 55 56 54 59 60 61 62 61 54 49 60 84 78 76 80 66
40 40 43 61 69 59 46 45 40 51 50 53 53 57 56 54 57 57 61 65 65 63 58 54 50 46 46 43 44 50 54 55 50 36 35 47 55 62 65 65 62 59 76 78 68 75 71 60 55
34 39 45 50 52 45 42 51 42 56 53 54 56 56 54 54 58 60 62 66 64 62 51 43 42 39 42 49 54 54 48 29 24 24 30 47 50 48 50 49 76 78 76 69 66 69 62 51 59
40 44 52 48 54 45 51 33 45 45 49 53 51 51 54 58 60 60 62 62 56 47 46 44 39 40 46 46 48 33 26 24 26 30 33 34 37 44 51 69 81 80 71 71 82 74 60 58 63
36 40 43 49 46 65 58 40 38 47 48 49 50 55 58 59 59 59 59 54 50 50 46 39 35 36 39 38 27 25 25 27 31 34 38 43 46 49 62 67 77 84 86 82 82 64 64 64 68

GFSSGP_925_rhum_030.txt.gz
RH
17 15 12 15 15 12 16 16 23 42 50 45 43 44 47 52 53 70 70 71 79 83 83 85 72 73 72 73 74 71 68 62 53 47 43 37 30 35 34 38 44 51 61 59 48 43 43 42 39
13 15 14 12 12 14 13 13 28 46 43 40 40 42 44 62 62 83 75 84 83 84 80 80 75 79 76 77 76 71 60 50 44 40 30 22 26 27 33 39 50 62 68 61 60 44 38 42 44
18 14 11 11 10 12 15 28 39 38 36 50 50 46 53 61 72 73 85 93 88 83 74 84 78 78 77 78 70 57 46 42 39 33 27 28 28 31 39 54 61 70 73 69 60 44 38 35 36
11 11 10 12 12 12 24 35 34 38 32 34 71 53 68 77 77 79 94 94 92 81 79 87 80 77 80 75 57 49 44 41 40 39 36 28 29 43 51 54 59 61 63 57 50 48 44 42 34
13 10 12 13 13 12 23 35 36 38 49 34 34 60 64 79 85 82 95 93 89 82 82 94 81 77 90 70 62 50 45 46 45 45 36 36 47 50 52 51 51 52 50 48 45 45 45 45 44
10 10 12 15 22 22 22 33 32 34 32 37 38 39 73 84 89 94 94 89 81 81 85 92 83 81 85 74 63 51 51 48 46 39 44 48 51 53 51 50 50 50 49 46 44 43 44 45 45
11 10 14 23 28 34 31 31 32 28 28 38 33 51 86 88 87 97 84 81 86 85 87 91 91 92 84 75 59 52 50 47 44 49 53 52 52 53 55 54 54 52 49 47 43 41 40 40 40
11 11 22 25 27 35 35 30 25 29 30 34 39 48 93 85 85 86 81 89 98 99 97 89 78 79 82 82 56 50 47 50 51 56 58 58 57 57 56 60 55 53 50 49 46 44 41 35 32
12 12 18 29 29 38 36 36 29 28 36 38 41 44 54 91 93 92 92 97 100 99 99 86 72 74 74 66 72 54 51 60 63 62 61 67 65 66 65 54 51 47 48 49 47 47 36 39 42
13 13 12 15 23 26 27 29 30 37 38 40 49 60 83 96 96 91 94 97 99 100 98 80 75 80 74 60 66 66 66 69 72 72 77 71 80 77 72 56 50 48 49 50 47 37 41 43 41
12 13 12 20 24 25 27 35 35 31 38 34 38 81 88 93 92 86 82 85 93 82 71 77 81 78 63 59 60 61 68 73 78 85 83 86 84 80 67 59 58 60 55 50 47 44 45 52 45
14 12 11 22 22 19 26 28 31 27 27 26 33 60 82 81 82 69 69 61 58 55 58 63 69 73 70 59 60 70 69 76 78 83 92 83 76 77 64 56 59 56 53 52 47 46 51 47 44
14 11 10 14 20 15 19 24 25 28 26 30 43 54 55 51 54 51 47 44 45 44 51 56 66 67 70 72 74 78 80 85 94 91 91 78 70 71 62 62 54 53 50 48 48 47 45 44 42
12 10 8 9 16 22 22 24 26 26 30 42 48 47 40 36 34 38 38 37 40 45 55 63 62 67 70 74 79 88 86 84 80 89 79 71 75 72 63 57 52 51 51 52 49 50 47 45 45
9 10 9 9 12 20 19 21 19 29 33 40 40 37 37 35 33 31 32 33 40 48 62 67 71 70 71 78 83 82 80 81 73 85 80 75 68 61 60 56 56 63 60 51 51 50 47 47 46
9 9 10 11 12 13 17 17 22 34 33 41 40 42 42 38 33 31 34 34 39 47 66 78 82 81 88 71 72 70 74 66 76 87 80 67 57 64 63 65 65 52 54 52 52 52 53 45 44
11 12 11 13 14 13 15 13 26 36 33 33 38 38 37 38 41 49 46 35 41 54 74 83 84 92 69 72 49 80 71 66 74 70 57 52 47 47 52 58 59 57 55 59 56 48 44 40 41
14 14 9 11 15 11 15 22 25 36 32 34 34 36 37 40 46 62 53 47 54 64 77 83 86 74 71 70 72 79 74 70 62 64 65 52 59 63 57 59 64 57 52 48 50 48 43 40 39
10 12 13 15 25 18 17 24 29 36 35 38 38 40 41 41 54 71 75 69 67 76 80 82 94 80 77 64 87 73 71 69 59 60 63 62 60 59 58 54 54 51 51 53 52 46 41 39 44
12 13 19 22 24 23 26 30 33 36 39 37 37 39 40 48 54 73 76 72 75 76 78 83 88 84 79 73 64 58 58 61 57 58 63 60 59 58 59 57 52 50 44 51 51 51 46 38 40
20 18 22 20 26 25 25 30 34 40 43 46 45 40 43 50 57 63 69 73 75 76 81 77 74 72 65 58 63 64 66 60 53 55 54 58 61 57 60 56 50 49 47 43 54 53 49 47 43
21 22 20 23 20 19 23 19 32 38 42 46 47 48 52 58 58 61 66 70 68 69 70 66 64 57 60 64 55 54 45 45 54 56 56 55 58 57 52 51 54 55 53 56 51 47 56 50 47
25 22 20 20 20 22 23 21 30 42 44 48 52 56 57 54 53 52 53 54 53 62 66 65 60 53 58 57 53 55 55 56 55 54 54 55 55 57 54 56 58 60 58 55 59 57 58 52 50
26 25 25 24 24 28 20 24 15 32 33 45 51 53 54 49 45 41 40 42 44 49 56 60 52 53 56 58 61 59 58 52 46 45 41 36 39 43 49 61 65 65 62 63 61 60 58 58 55
27 25 27 35 34 30 33 28 16 23 32 38 48 45 49 42 38 36 38 38 43 51 55 55 52 55 58 58 53 50 47 44 38 40 40 45 42 43 43 54 63 64 61 67 64 59 61 58 55
25 24 26 27 32 28 34 31 24 29 28 33 38 37 42 39 37 36 36 39 46 50 52 51 50 50 51 49 47 46 44 42 43 48 52 43 40 43 52 60 58 56 58 58 59 61 62 64 61
29 27 31 41 55 48 24 27 26 34 32 35 38 36 38 36 36 38 40 44 48 50 54 51 46 43 46 48 45 47 51 54 49 42 41 43 48 45 42 49 50 51 53 56 63 61 63 63 61
27 27 34 35 46 32 20 24 19 36 36 37 40 39 36 33 35 39 43 50 50 51 55 49 41 42 48 47 51 49 48 41 38 40 41 41 40 40 40 40 42 49 54 57 66 63 58 65 62
32 30 31 28 37 28 25 15 26 28 31 36 37 36 35 35 37 42 45 51 51 49 44 42 40 42 43 44 48 45 37 37 38 38 39 42 45 44 44 49 53 54 54 59 61 66 65 58 57
27 27 25 28 32 43 43 21 23 31 32 31 34 34 34 35 38 42 48 49 45 41 39 40 38 38 42 41 38 36 34 36 37 39 42 46 49 50 54 60 61 58 60 66 75 68 57 60 57

GFSSGP_925_rhum_033.txt.gz
RH
17 19 9 9 14 14 15 13 11 30 35 35 32 33 37 48 58 56 50 68 66 65 71 77 63 62 69 70 70 72 70 60 56 51 56 49 43 42 39 38 39 52 65 72 71 45 42 43 48
14 8 7 9 14 14 11 9 34 52 61 34 39 38 41 50 53 57 62 65 67 67 73 82 68 68 72 75 73 67 56 58 55 53 47 34 33 33 35 45 58 64 77 75 62 36 33 38 44
14 7 10 10 12 12 11 22 38 34 32 36 39 37 41 56 59 64 63 78 75 75 74 84 70 71 78 79 70 63 60 56 53 50 35 31 34 38 52 60 69 77 81 74 53 39 32 31 31
9 6 9 13 13 10 11 30 28 27 28 31 38 46 50 60 54 70 77 79 74 72 76 75 76 76 84 78 69 61 52 54 47 37 37 41 44 57 63 68 71 72 59 46 43 42 39 37 36
9 7 9 12 12 9 10 28 27 43 34 31 34 76 64 53 63 76 74 77 80 82 91 85 81 81 82 74 62 54 54 50 43 40 40 53 57 56 55 53 49 48 46 46 44 44 43 41 38
7 7 12 13 12 14 13 29 30 30 27 25 26 39 56 60 56 67 82 89 86 85 90 94 82 80 77 65 60 55 50 45 47 41 52 56 54 51 49 48 48 47 46 44 42 40 39 38 36
9 8 10 10 24 27 17 22 34 31 26 24 23 33 52 57 61 83 76 93 89 91 88 89 93 82 79 72 61 52 47 50 47 50 53 54 54 51 50 50 50 49 49 45 44 42 36 32 32
7 8 11 13 26 37 21 23 26 25 36 35 27 60 44 62 84 78 88 77 94 84 87 87 90 78 90 92 61 51 51 53 56 56 55 52 52 52 55 65 51 50 49 48 46 43 33 40 40
8 11 11 23 43 34 25 30 24 21 26 30 33 30 43 71 78 78 92 85 88 88 75 66 61 63 66 76 57 56 55 55 57 61 59 62 57 62 67 56 47 46 46 47 46 38 33 39 42
9 9 9 19 42 64 24 22 25 29 32 33 39 37 62 75 75 76 79 78 81 88 60 55 59 61 56 49 62 60 66 65 66 65 66 63 63 69 62 53 47 46 47 47 44 39 41 43 41
9 11 12 10 16 18 23 24 21 25 33 27 31 55 74 74 71 68 69 74 81 72 51 56 64 62 47 49 50 53 63 60 63 68 76 69 65 68 66 54 54 55 49 50 44 42 44 49 46
11 9 10 12 19 24 18 20 20 32 52 24 34 61 72 69 62 61 61 64 59 50 55 58 64 60 52 49 48 52 56 64 71 76 79 71 70 66 60 47 49 52 46 50 44 44 48 46 45
12 10 10 16 19 19 21 23 26 32 26 22 45 55 55 49 48 50 44 42 43 43 45 50 56 59 60 54 58 61 67 79 83 85 82 67 66 66 61 56 49 50 47 46 48 47 46 46 44
10 10 12 14 17 16 20 19 33 22 20 29 40 41 37 36 33 34 33 35 36 38 44 50 52 58 62 63 72 80 79 78 79 89 86 64 56 60 61 58 51 49 55 58 53 53 49 47 45
10 11 12 14 14 17 17 18 20 22 21 28 29 27 24 23 25 26 28 31 34 40 48 51 59 64 67 78 74 73 75 76 65 67 72 73 73 77 61 58 59 62 57 52 51 51 49 48 42
10 9 14 12 11 15 17 19 22 21 22 26 26 25 23 22 21 23 26 28 35 42 50 57 60 65 77 75 64 61 57 79 81 79 89 78 73 68 64 64 61 60 56 55 56 50 46 43 41
10 15 13 12 9 12 19 29 21 22 22 26 27 29 28 26 23 23 25 27 34 45 54 64 67 81 82 60 57 60 47 67 89 79 74 72 64 59 56 60 60 58 53 54 52 48 46 42 38
16 14 12 11 11 12 13 13 17 21 19 23 27 28 30 30 28 35 34 28 31 44 62 66 75 85 70 61 67 68 71 80 76 68 67 64 62 63 57 59 64 57 50 50 54 53 44 38 32
13 12 10 10 12 10 11 11 14 20 20 22 25 29 30 33 34 45 40 36 40 51 63 67 79 87 83 76 71 71 71 63 67 63 64 63 58 58 57 52 54 54 46 54 53 47 40 38 36
11 11 14 13 13 15 10 11 17 19 20 19 22 27 29 32 38 46 49 49 49 56 64 74 81 85 72 64 62 57 55 57 53 55 60 57 57 55 54 58 50 50 48 41 41 48 47 41 39
12 13 14 14 15 14 15 16 20 23 23 24 23 23 26 30 38 46 50 52 58 62 68 75 77 76 62 54 54 52 55 55 53 54 54 54 57 54 53 53 51 47 43 37 44 46 47 45 43
17 16 14 16 18 19 16 19 18 22 28 32 32 30 28 30 36 43 49 58 63 70 76 69 64 56 54 51 47 47 42 40 43 46 48 53 56 53 50 47 49 49 48 48 47 43 49 47 45
22 17 17 16 15 21 17 16 42 23 24 28 28 32 33 37 40 44 51 58 57 58 56 50 51 48 50 52 46 50 45 50 51 51 54 54 52 52 46 46 50 52 50 48 50 51 51 48 46
18 19 19 18 16 24 15 18 16 22 20 24 29 33 37 39 42 42 44 44 45 53 54 52 45 45 49 50 52 51 53 49 45 44 41 33 32 34 38 41 44 48 48 49 49 51 51 50 56
18 20 29 32 27 28 19 19 14 12 19 19 33 38 40 40 39 35 33 33 39 48 52 52 43 45 50 53 54 55 50 44 38 37 34 38 36 34 34 42 47 47 47 46 47 60 60 54 60
20 17 29 30 26 20 21 19 16 18 19 22 30 34 39 38 34 30 29 31 37 43 46 43 44 46 51 51 47 42 38 36 36 39 41 35 35 38 42 42 44 45 46 45 44 47 55 56 66
19 23 20 27 45 35 16 13 20 23 23 24 30 33 38 35 31 28 29 31 37 42 45 44 44 45 47 43 39 42 42 44 39 37 37 36 39 35 32 38 38 38 38 42 45 46 57 59 62
23 19 25 24 38 31 15 13 17 24 23 25 30 33 34 32 29 29 30 34 39 43 47 47 44 41 42 40 41 44 46 41 34 36 37 38 37 39 39 40 40 44 45 45 44 48 53 64 70
26 24 21 22 27 30 23 16 14 17 20 24 26 29 31 31 29 30 32 37 41 44 49 48 40 37 36 39 45 44 40 35 36 36 36 36 40 41 40 41 45 47 45 44 56 59 67 62 60
21 21 22 30 25 28 39 21 14 17 17 21 24 26 28 28 27 28 33 38 42 46 45 42 37 33 38 41 41 45 35 31 33 34 35 39 43 44 41 45 48 47 52 61 66 62 58 62 62

GFSSGP_925_rhum_036.txt.gz
RH
17 16 23 11 13 16 18 14 25 47 45 38 31 38 53 55 66 84 56 62 66 72 77 73 73 71 71 72 71 69 66 58 57 57 47 41 40 42 44 50 57 74 74 67 63 53 40 42 46
18 16 8 7 15 17 14 37 38 48 52 56 46 34 43 68 51 64 66 63 64 73 78 78 70 72 76 73 71 62 55 58 63 38 36 38 41 49 55 60 71 71 75 71 59 31 28 27 26
18 12 8 10 13 16 13 32 34 32 36 55 50 37 47 69 62 64 68 64 62 68 79 73 70 75 77 76 65 54 60 60 48 40 37 38 50 60 62 68 70 70 72 64 43 33 31 29 26
11 9 6 13 15 11 21 34 27 28 30 31 34 46 42 56 56 67 75 67 68 71 87 73 75 77 78 74 63 57 57 48 39 32 34 43 56 59 62 63 56 53 48 39 37 36 36 32 29
9 9 9 11 12 10 9 27 28 42 43 31 32 56 48 57 68 73 77 78 74 82 77 78 74 76 75 63 58 53 49 44 33 29 38 50 51 53 54 48 46 44 42 42 41 40 37 33 32
9 8 12 13 11 19 14 32 44 55 56 24 34 38 44 63 68 72 80 82 81 86 82 85 83 83 71 63 58 54 52 44 32 35 48 48 50 49 47 46 45 43 40 40 40 35 32 33 35
10 10 10 10 11 14 20 30 42 38 34 26 21 50 57 49 72 75 71 87 99 95 89 87 90 80 73 58 54 55 54 39 36 47 49 48 47 46 44 43 44 45 44 42 41 33 35 40 39
7 9 11 10 10 27 28 48 60 64 41 32 44 30 49 66 82 73 64 81 93 86 83 89 85 83 68 59 54 53 49 42 50 49 48 48 45 48 66 59 45 44 44 43 42 34 36 40 41
7 10 13 11 19 51 44 45 34 23 27 32 42 48 50 68 85 69 80 94 92 92 91 82 85 77 56 52 54 50 47 52 52 49 50 59 62 66 64 46 42 43 44 43 42 35 41 44 45
9 13 11 13 52 63 68 90 23 23 24 28 43 74 67 65 65 89 95 98 98 93 73 68 76 70 61 58 53 52 48 54 59 51 66 69 69 63 56 41 41 44 43 50 45 43 46 49 46
9 12 9 11 38 50 62 39 22 24 27 28 38 68 71 68 76 74 81 74 81 83 73 64 61 58 52 48 61 64 64 67 70 71 69 66 64 67 66 54 54 58 49 57 47 47 49 48 47
10 8 8 12 38 42 45 26 31 30 35 31 45 63 66 62 62 68 74 68 58 53 61 65 58 50 48 53 52 57 66 65 68 71 74 60 67 65 59 53 52 50 47 47 49 51 48 46 46
9 10 9 19 19 20 19 30 48 37 24 41 56 64 58 46 54 56 62 58 48 52 59 63 58 52 48 50 62 63 66 80 75 82 79 70 69 66 61 57 54 50 51 52 52 49 49 49 48
9 11 17 18 15 16 29 41 54 49 41 46 53 52 44 37 40 43 40 42 45 48 55 58 59 55 52 61 66 70 75 80 85 80 83 71 59 58 67 60 55 54 54 48 50 53 52 49 46
11 12 14 14 15 21 45 40 28 24 30 38 38 37 33 30 33 31 34 38 38 42 50 54 58 62 70 73 71 75 74 58 57 79 70 77 64 69 62 60 56 58 56 54 56 54 49 46 45
13 13 18 15 12 18 32 48 22 18 24 28 28 28 27 27 27 29 32 33 38 44 49 57 63 73 75 72 68 48 49 71 69 73 76 84 74 70 65 62 58 49 55 56 58 50 50 47 43
13 18 14 15 10 16 28 38 20 17 22 25 25 24 22 22 23 25 30 31 38 46 52 58 69 76 70 56 57 72 62 71 71 72 67 75 70 65 54 56 60 60 55 52 52 56 51 43 39
22 17 17 13 10 11 22 23 18 16 21 25 25 25 26 24 22 23 25 29 36 48 56 60 79 86 63 59 73 71 66 54 64 67 67 59 57 61 59 60 63 56 52 52 55 54 48 44 42
16 17 14 10 9 11 22 17 14 14 17 26 27 29 30 28 29 32 30 28 32 56 64 65 81 87 72 82 73 70 73 68 66 66 63 64 62 60 57 54 55 55 51 48 47 47 50 49 45
15 15 19 11 10 10 11 10 11 14 16 19 26 29 31 33 33 42 38 32 36 60 64 75 81 82 80 69 65 66 63 63 62 59 63 58 58 57 58 59 53 50 50 45 42 46 49 50 47
14 14 18 16 11 10 13 11 15 14 14 15 21 24 27 32 39 44 42 44 46 63 67 77 82 82 75 66 58 56 54 55 55 58 61 58 58 57 54 54 52 51 49 47 47 48 49 51 49
16 19 17 15 16 20 20 27 18 17 19 18 19 22 26 28 34 41 47 48 52 69 71 76 77 75 71 55 52 52 54 54 50 51 55 58 58 54 52 50 49 49 51 51 50 49 50 52 53
21 21 19 13 16 27 21 29 29 21 26 24 27 25 25 26 30 38 46 49 64 69 73 72 71 69 61 50 48 50 48 50 51 51 56 55 56 54 51 44 45 50 52 52 50 51 54 55 55
19 19 17 18 19 54 39 34 29 29 27 28 24 27 28 30 36 37 43 55 62 68 69 70 64 52 51 49 48 49 47 48 50 49 49 43 37 36 37 39 42 46 47 50 50 48 53 57 58
15 18 36 74 73 44 16 18 28 24 25 63 29 27 30 36 39 40 47 53 55 57 55 51 45 45 49 50 52 55 54 47 43 38 36 38 38 35 36 42 46 46 45 45 46 48 51 58 60
39 15 39 62 94 44 19 21 18 18 17 18 25 31 35 39 42 42 42 41 46 51 52 49 44 45 49 53 54 52 45 39 35 40 44 42 35 39 41 39 39 40 40 40 42 45 50 51 60
17 21 18 32 46 57 22 11 22 18 19 19 30 33 38 38 39 37 34 36 42 47 50 47 42 44 51 52 47 40 39 40 41 46 40 37 39 38 34 39 40 40 41 45 46 47 48 54 61
20 16 30 24 40 41 19 15 34 24 20 22 30 35 37 37 36 33 30 34 38 43 45 45 43 44 49 46 41 44 45 46 41 40 38 39 38 39 41 41 40 42 46 48 47 55 58 62 68
24 24 19 17 29 48 49 24 14 16 17 21 25 32 34 37 34 32 30 32 37 42 46 48 46 44 44 41 42 45 46 41 40 39 37 37 38 42 43 42 42 45 47 50 56 61 64 62 63
18 23 21 55 33 36 56 38 14 15 14 19 21 25 30 33 32 30 31 33 37 42 46 49 47 41 41 39 44 46 42 42 37 35 35 36 40 44 44 42 44 48 49 52 54 62 64 62 62

GFSSGP_925_rhum_042.txt.gz
RH
16 16 23 26 24 33 32 28 37 60 62 56 60 75 85 86 80 78 83 84 95 99 99 88 80 71 73 78 77 61 49 41 32 27 29 33 50 66 54 55 58 58 60 49 30 30 33 37 44
14 21 29 26 22 27 26 22 52 61 58 60 50 62 81 90 80 93 91 88 100 100 100 95 78 70 76 84 70 59 62 46 37 48 42 55 64 65 48 46 48 54 51 38 36 34 34 36 40
20 21 24 19 25 22 24 40 59 56 59 53 53 59 72 85 76 82 90 100 99 100 99 89 74 77 88 82 67 58 40 32 38 60 73 80 76 58 40 39 37 38 42 32 32 32 33 34 40
21 18 19 17 19 18 17 33 51 57 45 47 60 74 67 74 82 81 88 96 100 100 97 86 83 83 82 71 53 40 36 35 50 67 71 83 65 38 34 33 33 32 30 32 34 34 34 32 36
17 22 21 17 15 16 53 54 59 48 43 49 49 67 80 81 88 89 88 99 99 99 86 79 83 86 66 57 41 36 35 39 41 42 43 46 34 31 31 31 30 29 29 33 37 37 36 36 36
27 21 23 23 20 59 56 65 64 59 49 54 61 66 81 99 97 95 95 99 99 90 82 92 83 63 55 43 34 35 33 36 38 37 38 32 30 29 30 31 33 32 30 34 40 40 40 39 38
24 24 22 18 17 52 60 61 67 64 49 55 49 80 85 95 100 100 100 97 89 94 100 97 79 58 48 35 34 30 29 40 37 34 30 30 30 30 31 34 34 35 34 31 40 43 44 43 43
22 18 17 16 15 45 57 64 58 50 45 47 64 85 90 96 100 100 94 98 96 93 89 87 76 58 52 54 37 27 38 40 31 28 29 28 29 31 33 34 37 38 37 35 46 45 44 45 45
13 20 22 18 26 53 58 59 51 50 50 80 86 87 92 100 100 100 100 100 97 94 90 76 75 68 74 54 36 36 42 35 34 34 34 41 42 34 32 34 37 41 42 42 45 49 48 46 46
17 20 18 15 45 56 62 60 50 47 64 87 92 91 100 99 97 97 97 99 100 97 78 72 86 82 64 50 39 45 44 39 44 49 54 64 58 43 35 37 42 47 47 46 51 50 48 46 49
16 18 14 24 43 54 61 56 55 51 51 67 91 92 90 95 89 91 97 91 92 86 85 94 80 76 62 47 45 44 41 52 56 60 66 68 71 52 45 47 49 55 56 55 53 48 48 49 47
15 13 12 32 53 58 62 49 45 46 40 49 77 84 82 93 90 78 82 88 87 87 96 87 80 64 44 39 49 46 48 58 69 73 72 75 70 67 54 56 59 59 60 52 50 49 50 49 48
14 13 25 46 47 45 39 43 40 67 68 68 75 73 78 86 86 76 73 82 88 72 86 86 70 50 42 45 52 54 56 65 74 86 81 78 74 74 65 62 60 60 52 51 50 50 49 49 46
19 21 38 41 41 38 41 43 32 47 72 80 76 76 77 80 86 86 86 90 90 83 85 85 64 50 46 51 61 66 71 84 90 82 78 75 65 60 57 58 55 52 53 53 52 51 50 46 44
21 30 41 42 49 35 32 32 38 51 67 70 73 78 78 78 83 88 87 84 73 85 85 81 58 54 61 63 66 76 84 90 84 78 77 73 66 64 62 58 57 54 52 51 52 51 49 48 42
21 28 43 40 38 30 26 34 34 39 63 70 68 71 74 75 77 83 87 75 74 77 73 70 67 57 61 65 74 81 83 82 75 55 58 68 63 64 63 60 56 54 54 55 55 52 52 47 42
26 24 25 37 31 30 34 32 29 37 58 72 70 69 71 71 68 70 75 75 74 67 58 58 59 69 74 76 76 78 76 60 55 58 64 72 71 70 65 60 55 55 55 53 54 51 49 48 46
29 26 23 24 34 32 32 33 27 47 49 66 69 59 57 64 66 62 60 67 67 62 57 59 68 72 72 71 73 69 57 58 60 66 74 74 70 62 57 57 55 54 54 52 48 47 49 49 50
28 27 32 29 26 33 33 28 32 37 53 62 59 50 51 56 52 53 55 60 63 55 58 62 75 75 73 76 71 65 62 63 64 68 73 69 58 58 58 57 56 53 50 49 46 46 47 49 51
30 33 35 26 21 30 32 28 27 32 41 46 49 44 45 49 47 48 51 58 63 65 65 65 72 74 71 68 63 59 64 70 64 64 60 58 60 61 63 57 56 54 51 48 46 48 50 52 51
30 35 34 30 20 16 29 27 24 24 26 41 38 36 36 41 45 48 55 61 63 78 74 65 71 75 73 68 61 65 70 67 69 63 65 64 60 60 59 57 54 52 49 48 51 52 54 55 56
32 28 28 25 31 30 21 34 29 24 24 38 45 43 43 39 44 47 58 63 68 81 78 73 73 76 70 60 60 72 70 73 69 64 65 61 60 58 57 52 51 50 51 54 56 57 55 56 62
31 24 28 27 31 32 30 34 31 28 26 26 40 46 42 45 45 52 65 62 69 79 79 74 79 77 72 63 76 76 68 63 61 64 62 59 58 56 53 52 52 55 55 51 48 47 48 51 58
25 29 38 48 43 43 32 34 36 31 23 23 28 38 47 47 50 49 66 73 79 87 82 73 79 80 78 72 78 74 63 59 63 65 62 60 58 57 56 55 52 48 45 42 42 42 41 42 46
28 36 53 59 70 54 43 43 37 29 28 27 32 38 45 49 62 74 88 84 94 89 89 90 86 85 78 74 75 69 57 58 59 61 61 60 62 52 44 42 41 40 39 39 40 40 44 47 51
36 36 59 46 72 58 44 51 39 28 26 25 27 34 49 58 62 72 80 87 87 92 96 92 84 79 75 74 76 64 60 60 58 61 60 60 45 41 41 45 41 42 41 40 41 44 50 59 62
31 40 35 65 70 78 56 33 28 30 36 40 49 44 62 72 72 71 74 80 86 90 89 85 79 75 72 64 61 60 59 57 58 48 43 40 43 46 50 41 44 47 41 42 44 51 58 58 55
30 25 38 53 53 61 43 34 44 31 34 44 47 51 64 67 72 76 77 81 80 72 71 74 71 70 66 62 54 52 46 43 46 49 45 51 47 46 49 54 54 49 43 43 51 53 52 52 55
34 32 30 40 57 58 66 41 26 36 39 46 50 53 64 68 67 68 70 69 67 65 65 64 66 68 58 57 59 52 44 45 46 44 42 42 48 56 61 63 49 44 43 47 52 52 52 54 61
32 34 38 63 37 59 74 47 28 29 33 46 52 53 61 59 60 59 63 66 65 61 56 51 51 53 55 55 50 45 45 46 44 42 41 52 56 56 49 49 45 44 48 49 53 53 56 59 62

GFSSGP_925_rhum_045.txt.gz
RH
21 18 22 25 25 34 33 30 24 58 64 62 67 73 85 97 77 74 97 89 90 100 95 93 78 65 66 69 62 42 30 37 49 61 47 46 52 49 51 57 63 66 67 68 66 64 63 56 47
18 24 28 22 24 27 25 23 26 51 59 58 58 67 87 92 79 93 93 99 95 99 99 96 78 73 74 71 54 38 47 56 53 51 46 51 70 47 43 47 56 56 60 65 63 40 52 61 67
23 25 28 24 26 24 24 21 54 56 71 64 61 70 81 94 85 89 95 97 95 100 100 94 92 90 80 66 60 53 47 44 51 59 67 52 63 37 38 37 37 40 44 60 65 38 36 40 48
23 20 21 19 19 18 18 32 51 67 58 59 64 73 77 92 91 89 96 92 100 100 99 93 88 89 76 61 58 37 34 42 53 67 65 49 48 34 31 29 30 34 36 34 46 41 39 37 46
18 24 26 18 15 19 55 62 62 55 60 66 59 84 84 99 99 99 99 97 95 100 99 87 79 84 71 48 43 42 48 53 66 67 42 32 32 32 29 29 32 36 38 37 37 38 39 39 40
29 24 26 26 18 50 57 67 64 62 63 63 67 76 95 100 99 100 100 98 96 99 96 88 88 73 64 43 36 48 57 75 78 62 34 32 34 31 30 30 32 38 40 39 39 39 41 42 42
26 30 26 19 18 20 58 64 60 52 49 54 59 93 91 96 100 98 100 99 100 100 100 100 87 72 59 46 40 44 55 56 52 39 33 32 32 33 34 33 31 33 38 40 40 40 42 44 44
26 23 20 17 16 18 53 62 60 59 50 56 63 93 95 99 100 99 100 99 99 99 93 89 85 63 50 54 35 39 39 41 45 36 33 34 34 35 35 36 37 34 38 42 45 45 46 44 45
17 25 27 20 19 29 59 57 58 61 91 89 90 88 94 100 100 99 97 92 88 97 99 93 78 74 65 38 27 32 42 44 38 35 35 36 37 37 38 38 40 39 44 48 48 48 46 47 47
20 25 20 17 22 48 62 61 56 64 87 92 93 92 100 98 100 98 98 99 99 84 85 76 59 48 39 31 34 52 55 46 40 38 40 46 40 40 40 43 45 43 47 51 49 48 47 48 47
18 20 16 15 35 48 64 57 55 62 64 84 94 88 94 91 88 94 97 98 99 92 83 74 62 73 83 55 51 60 51 46 44 50 64 58 44 41 43 46 48 48 49 53 49 48 48 48 47
19 16 14 25 52 57 59 52 48 50 50 67 83 80 84 86 89 90 98 99 98 91 73 96 70 70 67 58 50 54 48 49 55 59 71 72 56 47 49 50 55 59 56 52 50 50 49 48 44
16 14 34 43 52 49 46 46 60 79 72 81 86 88 86 85 89 85 91 95 94 97 81 96 79 83 74 50 53 51 54 60 65 67 71 72 67 63 53 58 61 60 53 51 51 50 49 45 42
19 40 48 46 47 41 44 44 48 74 80 87 88 91 88 85 80 78 85 90 88 91 87 91 77 78 59 53 54 53 58 66 78 80 76 76 71 72 64 62 63 55 53 52 51 50 47 45 40
22 42 45 44 40 31 38 42 53 64 78 85 86 83 88 86 74 75 80 86 85 82 86 85 87 71 64 48 56 59 68 80 85 80 76 72 69 67 60 59 54 54 54 54 52 50 50 47 39
20 37 52 41 38 30 25 36 48 72 72 82 81 77 80 85 79 78 75 81 82 77 80 79 89 71 57 51 58 68 79 87 87 81 76 71 66 62 58 56 56 56 56 56 54 52 50 45 41
29 34 34 41 35 34 32 31 36 62 68 79 88 84 84 84 83 82 83 74 73 73 81 80 86 66 53 57 68 75 90 89 86 75 71 72 68 65 61 58 57 59 57 54 53 50 46 45 46
33 28 28 44 32 36 37 34 35 51 69 68 87 88 84 87 85 83 83 82 71 72 80 77 79 64 63 70 82 90 89 80 65 56 62 74 72 67 62 58 57 57 53 53 49 46 46 48 50
31 30 32 29 23 35 38 32 33 51 65 79 81 79 83 80 73 75 81 80 77 79 73 76 75 68 69 86 88 83 74 64 62 65 70 74 71 66 59 57 55 54 52 49 49 45 48 51 52
31 30 29 28 24 38 36 36 27 48 57 64 73 70 67 72 74 71 73 74 75 74 70 71 67 71 79 78 81 77 67 64 66 71 75 74 64 60 60 55 54 53 52 52 47 48 50 52 53
30 32 32 31 26 28 31 35 25 28 33 56 59 57 55 63 68 70 65 70 71 73 70 65 67 71 77 77 77 72 72 70 75 71 69 63 62 63 62 58 56 54 52 49 50 53 55 56 58
34 28 32 34 32 35 27 44 31 30 32 50 54 54 50 56 58 61 60 65 71 71 68 66 67 72 76 76 76 68 68 76 71 64 61 64 65 62 60 58 56 53 51 53 59 60 54 53 55
33 25 31 30 34 33 32 34 31 29 34 40 47 48 45 48 53 56 57 60 66 71 74 79 84 84 80 78 75 71 72 70 65 66 63 67 63 63 60 56 54 53 56 55 50 47 46 49 55
26 28 39 46 45 47 34 38 39 34 27 26 34 45 42 47 49 51 53 59 65 74 83 84 85 82 81 78 71 67 76 72 70 67 67 67 64 62 58 56 56 54 48 42 38 39 40 42 45
30 40 55 57 66 54 40 45 39 28 28 27 31 39 45 50 61 69 78 68 75 89 92 90 90 90 82 77 71 72 80 76 69 62 66 66 64 61 58 52 46 45 52 55 41 44 48 50 52
34 38 59 44 66 50 46 52 37 29 34 28 30 38 50 59 63 76 74 77 88 92 94 95 97 92 87 85 79 76 81 77 70 63 65 66 63 53 46 48 59 69 46 47 49 44 54 53 57
36 42 35 65 69 78 53 44 32 30 41 47 45 44 54 62 63 73 80 86 91 90 94 93 97 94 90 88 80 80 83 80 71 69 71 74 52 50 65 74 59 60 57 63 53 52 56 55 52
32 30 39 56 45 53 50 41 45 32 28 42 50 52 68 76 82 83 85 88 92 94 92 97 93 92 89 83 83 80 84 75 68 70 73 51 51 68 73 59 69 67 56 51 48 53 53 53 54
35 36 36 43 57 58 67 48 30 34 31 37 42 50 73 81 87 83 81 83 86 90 93 93 92 92 84 80 72 69 69 65 62 60 49 48 62 63 52 62 63 54 46 45 49 53 53 54 56
32 37 38 63 42 63 77 51 26 28 36 42 44 53 66 71 74 78 78 82 84 81 80 82 84 82 78 69 63 62 59 56 54 52 53 56 51 49 61 58 55 47 45 48 49 53 54 56 55

GFSSGP_925_rhum_048.txt.gz
RH
20 17 21 22 27 33 32 28 24 34 62 73 73 77 83 90 79 81 100 93 97 100 95 94 91 77 68 55 40 33 29 38 42 40 61 53 47 54 65 71 69 64 75 90 86 56 47 74 75
18 29 25 23 26 28 24 23 22 38 65 64 67 74 90 94 85 93 94 93 95 99 96 94 91 83 69 49 33 27 28 59 40 61 52 40 43 59 63 70 68 60 64 76 80 72 71 76 76
21 24 29 24 29 25 24 18 50 74 70 60 68 79 88 96 87 92 94 89 95 100 99 92 91 85 64 43 32 30 35 35 36 55 72 63 59 64 62 71 71 62 56 52 42 48 69 75 52
26 22 22 22 20 18 18 33 61 66 61 64 71 84 81 97 97 92 94 97 97 100 98 92 93 80 56 38 32 37 59 52 70 69 70 71 68 60 57 69 69 54 46 36 35 42 48 41 46
18 26 27 21 17 16 45 62 64 64 71 78 74 89 90 98 100 100 100 93 95 100 98 98 94 76 57 47 36 33 46 78 84 79 73 67 53 48 44 44 52 42 40 39 39 40 40 39 44
28 25 29 28 21 23 59 63 63 67 72 68 75 86 92 98 100 100 100 100 100 100 100 100 90 77 48 29 39 36 66 82 77 70 65 52 46 37 37 37 38 40 41 41 42 42 41 41 41
27 30 26 22 20 17 49 63 58 58 56 62 67 91 91 98 100 100 99 98 98 100 100 100 90 66 57 48 41 56 79 82 64 53 51 40 33 32 37 38 37 39 43 44 44 44 43 42 41
29 28 23 20 18 18 44 61 63 58 66 67 75 95 97 96 100 100 93 93 97 100 100 88 71 77 58 49 45 66 70 67 55 40 40 35 34 33 32 33 40 44 45 46 46 46 45 45 45
20 29 28 21 19 20 60 56 59 79 89 89 88 86 97 100 100 99 100 100 99 99 94 91 85 61 50 48 69 59 59 60 38 38 39 38 38 39 39 36 43 46 47 47 47 47 47 46 44
24 29 24 19 17 29 64 54 56 72 92 93 90 98 100 100 100 95 98 99 100 100 98 85 64 56 45 37 38 65 57 41 37 39 41 41 41 44 44 40 44 48 49 48 48 48 47 46 44
20 23 18 15 18 46 68 62 56 77 76 87 89 92 96 98 97 91 92 91 98 94 89 85 80 62 56 69 70 56 43 41 44 44 44 45 44 44 46 46 45 50 51 50 49 48 48 48 47
21 19 16 16 50 59 66 58 53 55 57 77 81 88 88 89 92 94 94 95 95 83 69 64 68 57 54 72 49 47 43 46 50 54 59 45 44 46 48 50 49 50 52 50 50 49 48 46 40
18 16 30 41 53 53 51 52 65 88 82 82 76 82 84 84 88 96 97 95 97 98 99 91 70 64 64 44 36 59 50 52 53 67 73 64 47 47 49 53 59 57 53 51 50 50 47 43 36
30 48 48 47 48 45 46 54 56 91 90 87 83 86 83 82 89 94 93 94 97 93 86 82 64 74 86 69 40 55 57 55 60 64 72 73 64 54 54 57 61 55 53 52 51 49 46 44 35
25 41 44 44 43 40 42 40 64 91 85 91 89 86 82 83 86 90 90 92 91 90 82 93 98 82 76 63 46 58 60 64 72 76 79 78 72 70 59 64 62 56 53 52 51 49 49 44 35
28 38 49 43 40 34 31 39 58 86 87 94 92 88 87 85 78 80 86 89 87 91 94 94 92 77 70 69 55 61 60 66 78 84 79 76 73 79 72 65 58 55 55 53 53 52 48 42 36
32 37 36 41 38 36 32 31 50 82 81 94 92 90 90 88 77 73 77 79 86 85 88 92 89 84 74 66 55 63 65 80 86 82 78 75 70 71 65 58 56 56 56 56 54 50 46 41 41
35 32 29 46 32 38 41 40 52 81 79 91 89 87 88 92 85 76 78 77 75 76 79 85 86 87 75 64 65 68 74 90 94 88 81 76 72 66 60 58 57 58 58 55 52 48 44 44 48
31 32 31 30 26 39 43 39 45 64 76 88 96 94 94 93 81 82 80 79 76 73 73 78 81 86 74 66 73 86 98 100 96 79 66 70 73 68 63 60 60 61 56 53 49 47 47 52 52
32 33 34 28 27 34 40 40 30 55 72 74 90 94 92 90 90 86 85 83 80 71 71 76 79 79 73 62 70 88 95 94 82 71 70 75 74 71 65 62 59 56 54 51 49 47 51 53 55
31 32 30 30 31 32 30 36 30 33 52 62 70 75 75 82 86 84 85 88 81 78 71 74 76 75 72 67 78 89 90 86 81 78 74 75 74 68 63 60 56 54 53 51 50 53 54 56 59
35 28 29 32 35 42 29 42 30 31 46 53 61 75 71 70 74 76 78 82 82 78 74 76 76 79 79 73 82 87 81 81 78 66 66 77 70 67 65 60 57 55 54 52 57 60 55 53 53
34 27 30 32 39 36 34 37 31 31 33 38 52 62 64 60 65 73 75 72 76 78 76 78 78 79 80 80 87 85 79 80 72 71 71 69 69 70 70 64 57 56 55 57 52 46 44 51 46
27 31 40 50 46 49 36 39 42 34 30 30 34 54 58 56 59 62 67 66 68 72 76 77 81 84 82 89 89 83 80 77 76 75 69 70 72 69 64 61 58 56 54 45 46 65 52 42 42
32 41 55 57 66 55 43 50 47 31 29 29 34 43 49 51 58 64 71 67 68 71 77 80 82 87 81 86 86 83 82 83 80 77 72 72 72 70 65 61 56 48 48 71 65 47 47 44 46
35 40 61 44 64 47 45 52 35 29 37 44 35 30 52 54 54 63 62 64 70 79 83 83 85 88 87 81 81 88 86 87 85 82 69 69 69 66 62 61 49 52 69 53 68 67 60 46 54
38 44 38 67 70 79 53 42 28 31 34 45 43 47 58 60 58 58 69 67 73 84 86 79 86 91 87 83 78 89 92 88 88 88 73 73 69 62 68 69 60 73 59 72 71 49 42 50 55
32 37 44 57 51 52 48 44 41 33 31 46 44 43 53 66 70 69 84 82 82 84 86 76 79 81 83 91 91 92 91 91 92 89 80 74 68 67 64 65 75 63 80 67 45 42 48 55 54
41 41 43 46 57 55 66 49 34 29 32 33 41 46 54 77 80 84 89 88 86 86 83 78 89 92 94 91 92 94 95 95 93 89 80 77 73 66 70 76 63 77 62 48 45 49 54 55 55
34 40 44 64 45 66 76 54 29 28 31 36 38 44 57 73 82 85 86 89 92 85 86 89 97 97 91 89 94 97 96 92 87 87 86 82 74 68 74 77 77 62 51 48 50 61 55 55 57